GFSFLT1_500_spd_000.txt.gz
Wind_Speed
24 26 20 15 14 13 11 13 15 18 18 20 21 21 22 21 24 18 18 20 22 23 22 24 26 27 28 28 25 22 21 23 26
27 26 23 12 14 13 15 16 14 16 18 20 19 21 24 24 20 17 18 17 18 20 21 24 26 28 29 27 28 25 25 26 29
23 24 16 15 16 16 16 10 11 15 16 18 19 19 16 15 11 12 14 18 20 22 24 23 27 29 29 33 32 30 28 28 28
24 22 18 19 19 23 22 18 12 14 14 16 15 13 9 8 13 16 17 16 15 28 33 33 35 33 31 32 31 32 33 31 31
28 29 27 24 22 26 27 21 13 13 15 13 12 10 9 12 13 13 15 21 29 25 35 38 36 27 40 45 33 38 36 32 35
23 21 28 26 25 20 20 20 14 13 12 11 11 10 11 14 15 18 22 30 29 29 33 35 42 44 40 35 42 38 37 35 34
23 21 21 24 23 25 22 21 19 17 16 14 15 15 17 18 20 21 25 28 33 35 38 41 41 34 38 19 26 28 32 38 33
27 23 28 23 28 23 24 22 21 19 19 20 21 22 21 19 24 24 25 30 34 39 41 43 35 31 27 24 28 28 34 37 35
29 27 29 26 28 31 27 27 25 27 25 24 25 22 20 25 26 31 33 35 39 41 45 47 34 30 36 33 29 31 35 37 38
26 27 31 26 29 34 33 29 28 30 28 24 23 23 23 26 31 36 38 39 45 44 48 45 43 40 39 40 36 33 31 33 30
29 31 29 32 36 31 29 32 35 34 29 26 30 29 32 34 38 41 44 44 46 48 46 51 48 43 42 44 39 33 31 27 28
32 34 30 36 32 30 32 35 36 36 33 31 35 35 37 38 39 45 49 51 52 57 64 46 48 46 45 44 38 30 30 27 26
36 32 32 35 35 34 35 37 38 37 36 34 34 36 39 41 46 51 54 59 51 57 55 52 50 46 41 39 33 34 31 29 30
39 37 33 32 30 39 38 39 41 45 39 40 39 39 43 46 52 55 58 52 43 52 51 47 49 43 35 34 34 33 29 26 27
40 39 39 38 35 33 44 47 48 45 45 41 42 44 45 51 54 59 58 55 48 53 53 51 42 40 37 36 35 33 36 35 34
39 40 39 38 39 39 43 48 46 43 46 44 42 41 46 50 54 61 56 53 54 50 45 39 38 40 36 38 38 41 38 40 38
38 41 42 39 39 41 43 47 52 39 45 43 42 41 45 48 53 46 55 56 51 45 43 37 37 34 39 43 45 44 41 41 40
44 45 44 42 42 43 46 50 47 41 44 47 47 49 50 49 48 53 47 43 46 45 43 40 39 43 44 45 46 42 40 38 38
43 47 44 42 41 45 45 46 45 46 49 51 51 50 47 48 45 42 43 45 44 44 43 42 42 45 45 45 45 41 40 39 41
42 45 46 35 34 39 46 46 46 48 43 39 38 40 41 45 44 44 45 43 42 43 44 45 46 46 46 46 41 40 42 41 41

GFSFLT1_500_spd_003.txt.gz
Wind_Speed
25 32 27 23 18 19 18 17 16 15 16 21 21 22 22 20 21 20 22 21 23 25 25 25 23 28 29 31 35 32 25 28 27
26 36 24 23 16 15 11 13 15 15 17 18 20 22 22 20 21 22 20 19 18 19 21 22 23 33 31 32 38 37 42 31 30
26 27 25 26 22 18 12 12 10 10 12 18 19 22 20 21 20 19 17 16 19 19 16 27 25 30 31 30 33 31 35 37 33
24 26 22 21 16 14 16 18 15 13 16 17 18 19 19 18 17 15 15 13 14 16 19 21 25 34 29 30 34 32 33 38 35
19 25 27 22 22 21 18 19 18 21 18 16 18 19 21 20 16 13 12 16 19 19 17 22 22 24 32 31 33 24 21 27 38
21 23 25 28 28 30 24 17 17 19 18 16 17 21 19 17 15 15 18 20 19 17 22 21 29 27 27 30 34 32 29 32 38
30 30 33 31 29 30 28 21 20 20 18 19 17 18 18 18 16 17 19 17 19 24 21 28 30 32 30 32 36 35 34 39 42
36 31 35 28 30 26 25 23 24 23 20 22 22 19 17 17 14 16 20 21 25 30 28 33 36 37 33 34 43 43 42 45 47
43 32 30 34 31 31 27 28 26 25 24 25 25 19 18 18 16 18 23 27 31 36 38 40 42 46 43 47 42 41 45 41 42
45 35 32 34 33 27 30 30 31 32 30 28 27 22 18 22 21 27 30 33 36 41 44 47 49 53 57 57 46 42 44 40 39
40 38 36 34 31 28 34 32 33 35 35 33 27 27 27 28 29 32 35 38 41 44 48 50 51 57 48 46 48 42 43 39 36
41 46 30 38 32 32 33 35 33 34 36 34 33 33 35 30 31 35 40 42 43 48 53 57 57 49 52 53 51 48 40 36 35
52 43 39 41 35 34 37 34 34 35 37 35 33 32 32 33 35 38 41 44 45 50 59 60 53 49 51 54 52 44 35 34 33
42 40 46 43 38 35 39 38 37 35 36 36 37 39 40 39 40 45 45 45 49 52 58 62 58 56 53 52 46 39 37 38 37
39 39 49 47 42 39 38 40 40 40 40 42 43 45 46 44 47 49 47 49 49 53 53 61 59 55 52 47 41 41 38 38 40
36 40 46 49 46 40 37 34 30 36 44 47 47 46 46 49 48 48 50 52 54 56 56 54 57 53 44 44 43 39 41 40 46
35 43 48 50 48 47 44 42 41 38 39 47 51 52 50 46 45 50 54 54 57 52 51 53 48 44 44 43 41 41 40 49 46
37 42 47 43 45 46 48 48 48 48 49 48 47 51 50 50 54 54 56 55 54 47 48 46 47 47 49 45 50 48 45 43 44
39 35 39 41 42 47 49 50 50 49 48 47 46 51 47 53 55 59 55 56 48 43 46 46 44 46 48 46 46 46 48 46 45
41 42 44 47 48 49 51 52 52 52 48 48 48 50 50 55 56 55 54 51 49 50 48 45 47 46 46 46 48 48 45 45 45

GFSFLT1_500_spd_006.txt.gz
Wind_Speed
27 29 29 24 23 21 13 17 17 20 18 19 23 23 23 22 21 21 19 17 18 15 12 11 12 13 17 18 25 28 27 29 28
28 23 32 33 22 21 19 16 13 15 18 21 20 22 24 23 22 21 19 17 12 9 8 10 12 17 20 20 18 30 31 30 30
29 27 38 38 28 23 19 15 11 9 10 11 15 19 21 23 22 20 17 9 6 9 10 9 12 16 16 23 24 28 33 33 33
31 28 35 39 27 28 21 18 14 12 10 16 18 17 20 23 24 19 9 5 4 13 11 11 10 16 20 23 28 28 30 30 26
33 33 34 36 24 25 24 18 13 10 11 16 19 18 18 18 18 12 7 5 9 6 9 10 13 17 20 24 31 32 32 38 41
20 28 36 36 30 28 24 20 17 15 13 18 18 17 13 7 6 3 5 8 5 5 8 11 18 24 30 33 34 35 41 44 45
37 39 25 29 23 25 26 26 19 20 18 20 19 13 8 2 1 2 5 5 3 6 6 13 19 23 30 35 40 43 35 42 39
35 39 31 32 30 29 28 31 27 24 24 24 20 15 9 4 4 7 9 6 12 17 18 22 27 30 36 42 44 43 38 37 37
40 41 45 42 29 32 33 34 30 26 26 26 23 19 12 12 8 11 12 15 16 20 24 27 28 34 40 45 50 35 41 42 44
31 35 38 49 47 40 37 37 36 31 29 28 27 24 17 17 12 10 15 17 20 23 27 31 34 38 46 50 55 46 42 46 44
42 36 43 40 49 51 42 40 39 35 33 30 28 28 24 21 21 19 22 23 26 30 32 34 39 43 48 53 58 53 44 47 47
52 51 39 50 51 48 51 39 36 37 34 28 30 29 25 22 22 29 29 29 30 35 36 38 41 46 50 57 51 51 51 49 48
60 55 52 50 51 42 45 36 36 32 34 32 33 28 26 26 26 28 30 32 35 36 40 44 46 48 52 56 55 59 51 50 41
51 70 53 59 40 38 40 34 36 33 34 31 29 30 27 29 29 32 34 34 35 38 43 48 49 52 53 55 55 51 49 40 39
43 44 65 62 46 49 37 39 38 36 35 32 33 32 33 31 33 37 39 39 33 41 47 51 53 56 57 60 52 47 41 40 38
53 46 53 68 61 57 48 46 44 39 40 37 35 39 37 38 40 42 46 43 42 43 45 55 56 59 59 57 47 44 45 44 42
56 44 47 48 46 49 52 49 46 39 39 39 41 41 41 43 43 43 45 47 52 54 54 57 56 55 54 47 45 46 43 44 44
49 53 52 47 48 46 50 49 45 46 40 38 38 39 44 47 50 50 52 51 53 53 56 58 56 52 50 49 49 48 46 44 43
42 42 41 38 39 37 43 46 48 48 46 46 50 50 50 52 53 53 53 52 54 58 57 59 56 52 50 48 48 48 47 46 46
32 35 35 38 37 37 45 49 50 53 53 54 54 57 57 56 52 55 52 53 57 57 59 56 53 47 46 48 49 49 49 49 37

GFSFLT1_500_spd_009.txt.gz
Wind_Speed
29 34 26 11 12 13 18 18 16 16 18 20 19 19 22 21 20 15 15 12 10 7 8 5 8 9 10 10 14 18 23 26 30
32 26 32 13 10 16 16 19 18 17 17 18 20 20 22 21 22 18 17 13 8 5 4 5 8 6 8 12 15 17 21 25 32
32 31 28 26 10 18 28 21 20 19 14 11 12 16 18 18 18 17 14 10 6 5 6 11 5 6 11 11 17 20 20 26 30
36 41 30 30 19 26 24 22 23 23 15 12 12 13 11 12 15 12 9 8 6 5 6 4 4 6 7 11 16 24 26 29 30
33 36 30 27 22 30 25 23 20 22 14 13 13 14 10 9 7 5 9 8 6 5 6 5 6 12 14 15 16 23 34 38 37
30 24 28 32 32 35 30 23 18 21 16 15 16 13 9 3 6 10 12 10 8 7 7 8 7 11 12 19 24 30 37 38 40
30 28 32 37 39 37 35 31 25 24 21 18 16 10 8 8 13 15 15 11 11 10 7 9 10 17 22 25 30 34 34 33 45
27 29 32 36 39 39 30 26 23 23 23 23 21 15 10 12 14 16 15 14 12 12 13 16 18 20 20 22 29 34 41 42 42
39 38 38 36 40 44 39 37 37 36 26 22 24 22 13 17 14 15 15 13 14 14 11 13 17 20 24 25 29 38 42 45 41
40 37 35 43 43 47 45 45 40 41 33 27 24 25 20 16 18 16 17 16 14 12 15 18 21 23 26 29 33 39 41 43 48
52 46 47 42 42 44 48 50 50 39 40 32 29 31 28 24 19 20 26 22 20 22 23 22 22 26 29 34 38 42 44 47 51
51 56 43 41 45 50 46 45 50 47 47 39 36 35 33 30 22 21 26 27 29 29 27 27 20 26 31 36 42 47 47 51 55
60 58 60 53 45 46 46 37 46 46 43 40 39 36 33 31 25 24 24 25 29 28 32 36 27 32 35 39 45 48 50 54 56
70 72 68 58 59 52 51 44 50 51 45 45 35 35 37 35 31 26 21 22 30 30 29 34 34 40 42 38 46 49 53 52 45
49 72 77 74 67 55 48 49 55 45 35 41 38 35 41 38 33 24 22 31 33 31 37 40 44 40 39 45 49 51 58 49 40
44 47 51 57 82 73 61 55 57 57 46 40 40 37 38 35 30 30 32 34 34 38 47 40 44 46 50 50 53 54 54 47 45
45 50 52 51 46 56 67 66 57 54 51 45 44 42 40 34 38 36 35 37 41 45 46 47 48 51 52 54 58 57 55 48 44
45 45 56 62 56 55 55 49 62 62 56 52 47 45 46 46 43 37 38 40 44 45 49 50 49 53 53 54 56 51 46 45 44
49 55 57 61 60 59 54 53 50 58 65 64 52 51 45 44 40 38 42 43 46 50 51 51 54 56 56 53 49 44 45 45 45
47 58 26 48 53 45 54 43 47 50 46 47 50 50 46 46 44 45 47 47 50 53 51 55 57 58 60 58 50 44 43 42 43

GFSFLT1_500_spd_012.txt.gz
Wind_Speed
16 18 26 18 17 15 11 10 10 14 16 17 18 17 14 14 17 18 17 14 14 16 16 6 1 3 3 6 7 8 12 15 18
20 18 13 10 15 17 12 6 8 11 17 17 15 16 16 16 16 18 18 16 17 18 12 4 3 4 6 7 9 9 9 16 20
21 22 21 15 15 14 14 5 6 11 17 16 14 11 12 14 19 20 17 18 19 18 9 5 7 9 9 10 8 8 13 22 23
19 25 19 18 17 17 21 19 10 10 16 16 15 11 11 11 15 16 16 20 20 16 9 8 8 9 9 11 14 14 16 20 25
17 20 22 23 19 20 24 14 14 12 17 17 17 16 13 10 12 15 19 22 20 16 11 7 7 7 7 8 11 15 17 21 16
25 29 31 27 23 22 23 18 14 15 18 15 15 17 14 11 11 16 22 22 19 14 11 10 10 9 11 12 16 19 20 24 23
32 37 43 32 30 26 26 26 23 19 20 19 18 18 13 11 11 17 23 23 20 16 11 10 12 13 14 17 17 18 22 26 27
28 21 42 28 31 28 33 33 26 17 20 22 21 22 16 13 17 20 24 24 21 20 17 14 14 16 14 13 16 18 23 25 29
31 25 32 28 26 27 31 29 27 21 20 17 21 23 22 20 22 22 23 23 24 22 21 17 15 15 15 15 18 19 23 25 30
43 34 38 36 31 33 36 31 30 30 31 24 28 27 23 21 23 25 25 25 29 27 27 23 20 21 18 19 20 22 24 28 30
51 52 43 38 43 37 41 38 38 35 35 38 33 30 26 24 22 25 27 27 31 28 27 25 27 29 25 28 26 24 26 29 34
56 51 52 50 49 37 41 47 43 46 44 38 34 33 33 27 28 31 29 28 32 35 35 33 32 37 35 34 27 28 29 34 37
59 60 57 48 50 52 45 46 49 47 45 39 41 37 36 35 32 36 35 33 33 38 38 37 38 41 36 30 31 35 33 37 38
50 57 63 65 59 57 60 52 47 48 46 46 49 39 34 35 36 39 39 38 34 37 42 43 40 42 31 30 34 33 36 40 43
41 45 50 64 67 70 66 63 65 62 55 47 50 49 44 44 40 44 44 41 37 41 43 43 45 45 27 32 34 38 41 43 47
39 41 51 61 64 69 73 63 59 64 64 56 50 50 43 45 43 42 46 47 45 45 44 45 47 34 32 35 35 41 44 44 48
45 45 46 51 58 68 77 76 70 64 63 58 54 49 47 46 44 45 44 52 50 48 49 47 39 37 40 36 39 44 46 48 52
52 52 55 56 52 52 56 59 62 60 68 66 61 65 48 48 49 48 47 53 56 57 54 45 30 39 42 41 43 48 52 54 58
54 56 54 52 55 52 55 61 65 53 53 62 64 60 55 52 52 50 54 61 64 49 35 30 39 44 47 45 50 54 57 57 59
55 54 54 53 47 54 61 73 40 56 56 58 57 64 60 61 55 57 48 47 58 21 34 41 46 48 59 47 57 60 58 59 45

GFSFLT1_500_spd_015.txt.gz
Wind_Speed
17 13 5 6 7 12 19 19 15 11 11 10 8 10 14 15 16 14 16 17 18 18 17 13 12 11 8 8 9 11 10 12 14
19 17 11 4 5 10 22 19 13 9 7 7 7 8 14 18 17 16 16 19 19 19 17 14 13 12 10 10 13 15 11 10 12
15 15 12 10 8 5 16 11 10 8 12 8 9 9 11 15 19 20 19 20 21 21 19 16 16 14 11 12 13 13 15 16 16
22 19 15 11 10 10 12 16 15 13 13 11 8 10 14 13 16 15 17 20 25 23 18 18 19 16 13 13 13 13 12 16 17
29 25 22 19 16 17 17 16 13 16 14 12 10 14 16 17 15 15 16 21 27 23 19 22 21 17 14 14 12 12 15 16 13
36 30 27 27 28 27 23 18 14 16 17 12 15 16 16 17 15 17 18 23 26 22 22 22 20 18 18 17 14 13 15 18 16
39 36 34 36 30 30 30 23 17 19 15 16 18 17 17 14 16 17 20 22 25 23 25 23 23 23 23 20 16 15 16 18 17
47 43 38 41 31 35 34 24 24 25 22 18 21 19 10 12 15 17 20 20 24 26 25 24 24 26 25 22 22 18 19 19 19
51 46 43 45 40 27 25 30 26 26 29 22 22 22 12 18 20 20 23 22 25 28 26 28 27 25 27 26 23 23 24 26 26
45 50 47 45 44 30 29 19 23 28 25 25 24 23 21 20 25 23 23 26 27 27 27 29 30 30 29 28 29 26 26 37 43
49 51 51 45 43 41 39 32 29 30 31 30 32 32 29 26 28 28 25 28 29 30 33 33 35 36 34 33 32 30 32 34 27
45 53 54 53 48 47 47 44 32 34 38 35 33 35 35 34 31 28 26 25 27 29 31 35 38 40 38 38 35 35 36 34 27
44 47 55 57 54 52 52 49 37 33 34 39 41 43 38 36 33 31 33 30 31 33 35 34 40 46 44 42 41 42 41 33 29
44 47 51 57 56 54 54 49 46 46 46 45 40 43 44 40 38 35 37 37 39 40 39 40 44 49 47 44 45 47 46 28 30
36 42 48 53 56 57 56 56 52 48 45 43 42 44 43 41 42 43 42 41 43 42 45 47 49 49 48 51 50 48 49 28 33
34 37 37 41 59 58 55 52 53 51 52 45 48 51 53 52 50 48 48 44 46 45 47 55 54 52 51 51 51 52 52 31 34
40 39 40 42 44 53 65 67 59 57 55 58 60 57 56 61 48 58 58 54 51 54 54 57 63 56 56 53 51 50 43 31 39
50 43 42 44 47 48 51 51 54 62 67 73 70 61 68 62 57 58 55 59 57 51 54 60 63 64 68 57 60 52 34 37 44
56 52 52 52 54 59 61 56 54 56 65 64 65 67 67 70 66 64 62 64 58 60 60 64 67 63 54 39 52 32 35 41 46
58 58 58 58 62 62 55 50 54 59 60 63 68 74 75 69 69 64 62 67 65 65 67 74 66 60 61 24 21 34 36 42 47

GFSFLT1_500_spd_018.txt.gz
Wind_Speed
25 23 18 18 14 7 7 10 10 14 11 11 12 14 17 19 18 17 17 15 15 17 16 11 11 15 17 15 9 8 12 12 13
29 24 21 16 15 9 9 10 8 10 12 9 12 12 15 18 20 19 18 19 18 18 18 14 12 17 18 17 10 10 13 13 17
29 28 27 24 20 12 9 13 13 13 10 9 7 11 11 13 17 20 20 20 20 20 20 16 15 17 20 20 11 11 13 14 15
31 32 30 28 25 20 14 19 21 18 15 12 11 12 11 11 13 16 19 21 22 24 23 18 18 20 21 20 13 13 13 13 15
33 33 31 29 27 26 25 21 22 19 18 17 13 15 16 14 14 14 15 18 20 27 26 21 22 24 23 20 14 14 13 13 16
31 32 31 28 29 29 30 24 24 21 21 19 16 17 17 16 16 13 16 19 19 24 25 23 24 26 24 22 18 17 16 16 18
39 37 36 33 31 29 32 28 26 23 21 21 22 17 16 15 14 13 17 21 20 21 23 25 25 28 26 26 24 20 19 20 20
45 44 43 40 35 37 36 30 26 29 25 22 24 20 15 11 15 14 12 16 20 20 19 24 26 29 29 29 25 24 25 22 22
35 42 43 42 40 39 39 35 35 26 28 26 22 22 15 16 19 16 16 18 21 22 20 21 28 29 30 29 27 28 30 23 21
32 32 38 41 44 40 36 36 33 31 32 24 23 22 21 20 18 19 19 23 27 25 23 25 25 31 32 31 28 29 30 27 23
39 36 36 38 41 35 33 35 34 26 24 30 29 29 28 27 26 25 26 26 29 30 26 24 25 29 32 34 32 31 32 32 32
45 42 38 43 49 45 41 38 33 33 34 28 25 32 33 33 31 29 31 26 27 29 27 23 24 30 35 36 37 37 38 40 37
45 43 45 45 49 51 44 42 38 38 38 36 29 33 34 34 33 32 37 33 27 29 30 29 28 29 32 38 39 42 46 45 44
45 42 42 47 46 51 54 52 48 46 43 42 30 33 36 35 36 37 45 39 35 32 36 38 38 37 36 40 40 42 49 51 49
43 40 40 45 46 47 48 49 51 46 44 45 44 41 40 40 39 38 51 43 40 42 36 40 42 45 46 47 50 47 52 54 54
40 40 42 39 43 48 48 50 50 51 51 52 49 46 45 47 46 46 47 47 49 42 42 51 48 46 48 46 56 57 59 61 60
47 45 41 40 42 43 45 50 54 53 55 54 51 50 48 50 51 53 54 49 56 52 47 53 43 46 46 49 56 59 67 66 63
48 48 43 38 41 43 45 44 43 45 51 57 57 53 51 55 55 58 58 59 62 62 53 57 64 60 50 59 59 65 65 69 73
44 46 47 45 41 43 46 48 48 48 48 48 47 48 52 62 70 72 71 71 68 65 63 63 58 62 62 69 69 84 74 28 37
53 51 48 49 46 46 48 50 50 52 54 53 50 53 54 53 60 65 69 73 79 75 71 69 67 67 68 67 64 73 44 51 49

GFSFLT1_500_spd_021.txt.gz
Wind_Speed
28 30 28 25 24 22 18 15 14 11 11 13 14 15 16 17 17 18 19 20 21 21 20 18 13 12 11 12 11 10 6 8 11
31 28 26 26 25 23 22 20 15 12 14 16 15 16 20 21 21 21 20 22 23 22 22 20 17 15 13 12 11 11 7 7 10
32 27 27 25 24 22 19 16 17 16 17 15 17 15 16 18 18 21 23 22 22 23 24 22 19 18 16 14 13 11 9 8 10
32 30 28 28 26 23 22 19 21 18 18 18 15 14 15 15 14 15 17 20 24 25 27 25 21 20 20 17 15 12 10 9 10
34 32 36 33 32 30 27 25 25 23 22 20 15 19 18 16 17 14 12 13 17 22 27 28 26 24 23 20 19 14 12 10 12
39 38 40 39 36 34 30 27 24 28 27 25 21 22 21 21 19 18 14 14 15 16 21 24 25 25 25 23 22 17 15 13 13
42 41 41 41 40 39 34 30 31 29 29 29 27 22 21 20 17 16 16 18 16 14 16 19 21 24 27 26 26 22 19 18 18
42 44 43 44 44 40 37 34 29 29 29 29 26 22 19 17 16 20 17 15 15 15 14 16 17 23 29 29 30 25 22 22 20
40 45 48 47 46 44 39 39 32 29 28 22 29 26 22 19 19 20 17 16 16 16 15 16 18 18 27 31 30 28 26 24 24
33 41 46 48 46 43 42 41 37 31 33 27 29 35 33 24 23 20 20 22 20 20 20 22 20 20 22 28 31 29 29 26 24
35 34 33 33 41 44 41 41 35 39 34 34 30 36 32 27 26 26 24 25 24 23 27 27 27 21 22 26 30 30 31 31 32
41 41 38 36 33 31 35 34 31 34 37 35 31 30 32 29 28 30 32 29 28 29 31 29 28 24 22 24 27 30 34 38 39
41 42 40 38 36 34 34 33 32 31 33 34 32 30 24 28 35 36 35 34 33 34 35 33 32 30 28 25 24 25 30 37 38
41 40 42 41 39 38 38 35 35 34 34 32 32 35 39 35 34 35 35 37 43 35 36 43 41 35 36 36 36 34 37 42 45
43 43 43 45 41 39 37 36 38 39 39 42 42 43 42 40 38 35 38 39 42 47 46 44 43 42 40 39 45 46 45 46 48
46 40 41 44 44 40 37 36 36 38 40 41 44 46 44 43 41 37 41 43 46 46 45 53 47 48 39 40 45 44 47 51 51
49 46 42 39 43 43 41 40 39 37 41 42 44 46 46 46 46 46 45 47 52 50 55 49 55 48 50 56 47 50 50 52 52
47 47 48 44 40 40 40 41 42 39 38 42 47 50 53 54 56 57 49 55 54 60 56 58 58 61 59 64 58 56 49 56 61
50 50 48 48 46 43 36 40 40 41 39 41 41 43 52 56 56 57 58 60 64 64 67 67 66 66 65 63 66 65 64 67 68
37 35 35 38 40 42 41 35 37 45 47 47 47 44 45 48 52 56 56 59 62 63 64 65 69 74 76 71 69 74 74 71 69

GFSFLT1_500_spd_024.txt.gz
Wind_Speed
29 29 28 27 25 26 25 24 22 21 19 19 19 20 19 19 18 17 18 17 18 19 19 17 15 14 14 13 9 4 4 2 7
28 28 30 27 26 28 28 27 23 20 19 19 18 19 20 20 21 20 19 20 21 21 19 19 19 17 17 16 13 8 5 3 2
27 25 25 29 30 29 27 25 25 25 24 21 20 23 22 22 22 21 21 21 19 20 21 21 20 19 19 18 16 14 8 5 2
28 26 24 27 30 29 26 25 26 24 23 23 22 19 17 17 19 19 19 20 21 21 24 22 21 21 22 21 19 16 12 10 6
34 32 31 30 32 31 29 26 24 25 23 23 19 18 18 16 18 17 16 16 17 20 22 25 25 25 25 25 21 18 17 14 10
41 33 33 32 37 34 31 29 27 24 22 22 22 22 20 19 19 17 14 15 17 15 15 17 16 18 21 26 25 22 21 18 13
44 39 37 35 38 34 36 34 31 29 25 25 27 28 25 21 21 18 15 16 18 14 12 11 12 14 17 22 26 26 23 20 18
44 44 45 45 44 45 42 41 36 32 29 29 30 30 26 21 23 22 20 16 17 13 10 8 9 11 14 20 25 27 25 20 22
41 48 50 47 47 47 47 43 42 37 32 31 30 28 19 24 24 23 23 21 19 18 13 11 10 13 16 18 20 25 27 24 22
41 48 50 53 50 45 42 44 42 41 37 36 30 23 27 26 25 21 23 22 23 23 20 18 15 16 17 17 18 19 20 22 23
38 39 45 44 46 47 45 43 42 43 42 39 36 30 24 25 29 32 30 26 24 25 24 22 21 20 21 21 19 22 21 22 22
35 38 38 39 41 33 33 38 43 46 47 43 42 35 28 27 29 28 30 32 29 28 28 28 27 27 27 25 22 23 25 27 30
39 41 39 38 37 34 31 32 38 44 40 32 38 39 31 32 30 31 32 37 35 34 36 33 35 32 32 33 32 27 27 30 35
36 40 41 40 39 36 34 32 32 31 33 31 33 37 37 35 36 33 31 34 33 37 40 41 42 40 35 37 39 40 37 37 40
38 38 40 41 42 40 37 36 36 33 31 32 33 34 33 34 36 39 36 36 33 36 40 39 39 39 39 41 41 39 40 43 45
42 40 39 39 42 40 38 38 37 36 37 36 35 36 38 38 40 40 40 39 40 40 42 43 44 43 43 43 43 45 44 46 47
46 44 38 41 40 40 41 41 38 38 37 38 39 39 41 41 41 41 41 42 42 42 41 41 46 51 54 54 51 54 53 45 50
45 45 40 38 35 37 38 37 36 38 39 39 40 41 40 41 42 44 45 43 46 48 48 49 52 55 61 60 59 58 62 60 56
49 46 42 42 40 39 38 35 36 33 33 36 39 41 42 44 45 46 48 50 52 52 55 55 58 59 63 70 70 71 69 70 70
46 49 50 49 46 46 44 37 35 32 34 37 39 40 42 43 44 45 47 50 55 56 56 56 58 60 63 71 77 76 75 79 83

GFSFLT1_500_spd_027.txt.gz
Wind_Speed
31 32 26 28 26 25 27 25 23 22 22 22 20 19 19 19 19 17 17 17 17 17 15 13 12 12 11 10 7 6 4 3 1
32 32 26 28 26 27 28 28 26 23 23 21 19 18 19 18 17 17 18 19 19 19 17 15 15 14 12 13 11 8 7 7 4
34 32 24 29 28 28 28 27 27 26 24 21 22 20 19 18 17 18 20 19 19 20 19 17 16 15 14 14 14 12 10 10 9
36 32 24 28 28 29 29 29 28 25 23 23 21 20 20 20 19 18 19 18 20 22 22 19 16 16 15 15 15 15 14 12 13
41 36 29 24 25 30 32 29 28 26 25 24 23 23 22 18 18 15 13 14 14 15 17 18 18 17 18 18 19 19 16 16 15
43 39 34 26 28 30 31 31 30 28 27 23 23 23 21 19 16 15 14 14 15 14 13 13 13 11 11 14 17 19 19 19 17
46 45 43 38 35 30 31 30 29 28 25 24 24 23 25 21 17 15 16 17 17 15 13 13 10 7 7 9 12 15 17 18 18
43 46 40 37 34 34 31 29 30 31 30 28 26 24 24 21 19 19 19 19 20 17 12 12 10 6 7 9 9 8 9 13 15
38 44 43 39 38 37 37 37 37 34 32 31 27 24 21 23 21 21 20 22 23 22 17 13 13 9 7 7 9 9 11 13 14
40 39 46 43 40 39 38 38 39 37 37 35 29 28 21 21 22 20 20 23 24 23 20 18 16 15 13 10 10 13 14 15 16
33 36 44 45 44 44 43 41 42 43 43 39 36 33 28 24 24 22 22 22 26 26 24 21 19 18 18 20 15 17 20 20 20
30 35 41 45 50 49 50 49 44 39 37 38 38 36 33 33 30 27 24 20 26 25 29 24 24 24 23 24 22 22 25 29 31
39 42 41 41 41 40 43 43 47 46 41 37 38 40 42 38 38 34 29 23 24 25 29 31 31 30 31 31 30 29 29 34 38
38 38 38 36 35 33 32 33 36 38 39 38 39 45 46 46 45 42 35 32 30 29 28 30 30 32 32 32 31 29 33 35 39
38 39 42 42 39 37 35 32 31 30 31 36 39 40 41 38 36 40 39 36 35 33 32 34 35 36 37 36 34 34 35 37 40
39 41 41 42 39 40 39 35 32 31 33 34 33 32 32 34 35 37 37 35 34 38 39 38 38 41 41 41 41 42 42 40 45
44 43 40 40 41 40 39 39 38 35 34 33 35 36 35 35 36 36 38 38 41 43 43 42 41 44 45 44 45 44 42 44 48
46 45 43 42 41 40 41 39 37 37 38 36 36 37 36 38 39 41 41 43 43 44 45 47 46 47 49 49 50 48 52 54 54
42 45 47 46 43 41 43 42 43 40 39 38 38 39 39 39 41 43 44 46 48 48 48 49 50 52 51 53 55 60 60 59 61
47 45 45 45 44 43 42 42 42 41 39 38 40 40 39 40 42 43 45 47 49 51 52 52 52 54 55 59 60 62 63 62 67

GFSFLT1_500_spd_030.txt.gz
Wind_Speed
26 29 24 14 16 20 21 22 20 22 22 20 20 20 17 15 14 13 13 12 11 11 11 11 12 10 9 7 5 4 4 6 5
31 30 28 25 16 20 23 22 19 19 21 19 19 19 18 16 16 13 13 14 14 14 13 13 13 12 11 9 8 7 6 5 8
33 32 32 24 13 20 22 23 23 22 21 19 19 19 18 15 13 13 12 12 13 15 16 16 14 15 14 12 11 9 9 8 8
38 37 35 30 14 20 23 25 24 24 22 20 18 16 16 15 15 14 13 12 13 15 15 15 13 15 14 14 13 11 10 11 10
39 36 34 34 18 21 25 26 24 24 22 20 20 21 19 18 14 13 10 10 10 10 10 10 10 11 12 14 15 15 14 12 12
29 32 34 35 28 20 22 25 25 24 23 22 23 21 18 16 16 11 9 10 10 9 8 9 8 6 6 6 7 9 11 13 13
34 36 38 36 35 24 22 22 24 25 24 24 22 18 16 16 16 13 12 12 11 11 11 10 8 6 4 3 3 5 7 8 9
31 32 36 36 38 30 25 27 26 26 27 25 24 22 19 17 18 16 15 13 13 13 12 10 9 7 5 3 2 3 5 7 10
35 39 45 49 46 37 29 23 25 28 28 27 27 22 19 18 16 11 11 14 14 14 14 11 13 10 10 8 4 4 5 6 9
38 34 34 35 41 39 33 28 24 30 29 28 25 23 21 16 12 9 11 13 13 10 13 13 11 16 13 10 9 9 9 9 9
39 36 33 31 33 35 32 30 28 29 32 32 28 24 21 19 16 13 15 16 15 14 15 18 18 15 16 14 12 13 16 19 20
30 34 37 37 34 34 35 36 35 38 37 33 30 26 24 25 24 22 20 19 20 20 17 19 19 23 17 16 17 18 19 22 26
39 37 35 32 32 35 38 37 38 40 36 31 29 26 30 35 30 29 29 29 27 27 24 20 19 22 22 19 20 23 24 26 31
35 35 36 34 32 32 32 25 23 26 26 24 21 33 35 34 35 34 35 37 36 34 32 29 25 25 24 22 22 24 24 26 30
39 37 35 36 36 35 34 32 28 25 25 28 28 33 32 36 39 38 40 40 41 42 38 36 33 29 28 28 29 28 28 29 33
40 41 41 38 36 35 33 32 29 25 26 27 29 34 38 40 40 41 43 44 41 40 37 36 36 35 33 34 35 35 36 39 39
47 45 41 39 39 39 39 33 34 32 29 28 29 29 31 31 30 35 40 40 40 42 37 37 36 36 38 40 41 42 46 47 46
47 43 40 40 40 42 38 34 34 34 32 33 34 32 31 32 33 33 35 38 39 40 41 42 42 43 45 46 46 47 48 50 53
51 46 43 45 43 43 42 40 37 36 34 34 36 35 35 34 36 37 37 39 40 42 44 45 46 48 49 49 50 52 53 55 58
49 45 44 48 45 44 42 41 43 41 39 38 38 38 36 37 38 40 40 41 41 44 45 46 48 49 50 52 54 55 56 58 61

GFSFLT1_500_spd_033.txt.gz
Wind_Speed
29 32 9 4 7 10 12 15 18 17 17 19 18 17 17 15 13 13 12 11 11 10 9 9 9 9 7 4 4 5 5 6 7
34 32 15 7 9 10 13 15 17 18 19 21 20 19 17 15 14 12 12 11 10 10 11 13 12 10 9 8 8 8 7 5 7
29 26 20 20 10 8 10 16 18 18 18 20 20 19 18 16 15 13 12 12 12 11 11 11 12 11 10 10 10 9 8 7 6
23 21 27 20 8 6 9 15 18 20 18 17 16 16 17 16 15 15 14 11 10 11 11 12 13 12 10 11 11 11 11 10 9
27 28 34 25 13 12 12 12 17 20 20 18 19 20 19 18 16 13 11 9 7 6 5 3 4 4 3 3 6 9 11 10 11
41 37 36 34 25 16 10 13 17 17 20 20 20 18 17 16 14 10 8 7 6 4 4 2 1 2 3 4 4 4 5 6 7
28 44 39 36 31 20 14 13 17 18 20 21 20 18 18 15 12 9 9 8 4 3 3 4 3 2 5 5 3 1 2 4 5
26 33 43 43 34 25 19 18 18 21 21 21 20 18 18 15 13 9 9 7 5 3 4 2 2 2 3 3 3 2 2 3 5
27 34 36 37 38 34 27 24 22 26 26 22 20 18 16 15 13 11 10 7 6 4 3 2 3 4 4 3 2 1 2 1 3
37 37 43 45 42 38 29 22 17 16 22 26 24 21 19 16 11 9 9 8 6 5 6 6 3 5 8 8 6 5 6 7 6
31 39 40 43 42 30 22 24 21 19 24 29 29 25 23 18 14 14 13 9 8 8 8 10 10 9 8 11 12 13 11 13 12
38 39 38 32 27 24 23 25 26 20 22 26 27 27 24 21 19 16 13 11 11 11 12 14 15 14 15 14 15 16 16 18 19
39 36 34 34 32 28 24 25 25 26 25 25 23 23 21 22 22 21 19 19 19 20 19 19 20 19 17 17 18 20 21 21 23
45 38 34 34 32 32 34 30 29 30 28 25 27 29 28 27 25 25 25 28 28 25 26 25 24 23 23 22 21 24 25 27 28
42 40 39 36 35 31 30 33 33 32 28 22 23 25 26 30 30 29 30 32 33 32 30 31 31 31 30 30 27 30 33 31 31
40 38 38 38 37 35 33 30 27 23 24 24 22 33 32 36 38 37 37 37 37 37 36 36 38 37 33 34 36 37 39 36 36
48 40 37 36 37 37 34 30 26 27 25 24 26 26 31 38 39 39 41 38 36 37 39 39 39 38 36 38 37 37 36 37 38
51 35 39 43 43 41 37 33 32 33 31 28 28 30 29 31 35 38 40 37 34 34 35 36 36 38 38 39 40 40 40 41 43
42 49 47 44 45 43 40 37 36 35 34 34 34 33 32 32 34 35 36 37 37 36 35 35 37 39 40 39 41 42 44 46 50
59 56 48 46 49 45 42 42 41 38 36 35 35 35 36 37 37 35 36 36 37 37 38 39 40 40 43 44 45 47 48 50 52

GFSFLT1_500_spd_036.txt.gz
Wind_Speed
11 15 11 9 5 11 14 17 19 20 18 18 21 23 21 19 18 17 15 12 11 11 10 9 7 4 4 5 5 5 5 6 6
28 18 14 9 9 7 16 18 22 21 21 20 19 23 22 19 19 18 17 15 13 13 13 11 9 7 7 8 9 9 7 6 7
24 25 18 14 10 6 13 20 22 22 20 21 22 23 23 22 21 20 18 16 15 14 13 12 11 11 11 11 12 11 8 7 8
30 23 17 18 16 9 9 21 21 22 19 21 21 19 22 23 22 21 19 18 15 12 12 14 14 15 16 14 11 11 10 9 10
36 21 21 14 14 11 13 16 21 21 18 17 22 24 23 24 24 22 19 15 11 10 9 8 7 8 10 11 11 10 11 11 11
33 28 24 21 17 13 14 13 20 20 20 20 23 23 23 23 22 20 15 12 11 9 7 6 6 9 11 9 9 8 7 6 5
30 32 30 30 23 20 16 12 16 20 22 23 22 23 22 22 21 18 13 14 12 10 7 9 10 10 9 9 7 5 4 5 5
26 28 33 29 29 25 19 17 12 21 24 24 24 22 21 21 21 17 16 14 12 10 7 7 8 9 9 8 9 8 7 5 5
19 29 33 34 30 28 24 22 17 16 23 26 25 23 21 21 19 16 18 16 12 9 7 6 7 10 11 10 10 10 7 6 5
21 22 21 35 38 33 30 28 24 18 17 25 27 23 24 22 19 16 17 15 13 11 10 9 8 8 11 12 11 11 9 9 9
28 27 28 28 29 31 34 31 31 27 26 24 25 23 21 20 16 17 17 16 16 15 13 10 10 8 9 13 14 15 14 14 9
36 29 29 29 26 23 20 24 28 27 19 24 26 26 23 20 21 21 19 17 17 18 16 14 12 11 12 14 17 20 20 19 18
38 34 33 32 28 23 20 22 23 22 22 24 23 29 26 26 27 26 25 24 20 21 19 17 16 15 16 16 18 24 23 23 24
40 37 34 32 30 26 22 22 31 31 30 25 21 27 34 33 31 27 26 28 29 26 24 25 22 20 20 19 19 20 25 29 30
41 37 35 34 30 29 29 28 28 32 34 34 34 33 32 32 31 31 32 33 32 32 32 31 29 28 28 27 27 27 29 31 30
44 41 40 39 38 36 34 32 31 31 30 29 31 34 35 34 33 35 35 37 36 36 35 37 37 38 33 34 35 34 32 34 35
48 42 44 43 40 39 34 30 28 27 26 27 30 33 36 39 42 42 44 45 45 45 42 42 42 41 40 40 39 37 35 34 38
52 44 44 46 43 39 37 36 35 33 29 27 27 29 32 37 41 45 47 47 47 46 45 42 40 39 39 39 39 39 39 41 40
57 51 48 46 39 34 35 36 36 34 32 32 30 29 30 32 40 45 45 43 42 38 39 39 36 37 37 38 40 41 42 43 44
61 57 56 50 41 40 40 41 41 38 36 33 33 33 34 33 33 35 38 39 39 39 38 39 39 39 39 39 39 42 44 45 44

GFSFLT1_500_spd_039.txt.gz
Wind_Speed
14 13 11 12 9 12 19 21 24 24 25 28 27 26 23 21 18 17 15 15 14 12 9 8 7 6 4 5 4 3 3 5 8
32 21 16 16 8 14 19 22 26 23 22 26 30 28 26 22 19 18 18 18 16 14 12 10 9 9 9 9 8 6 5 5 7
34 29 23 19 17 17 18 23 27 27 25 22 24 27 26 23 21 21 21 18 17 16 14 12 12 13 13 13 11 10 8 7 8
24 32 32 23 19 20 14 24 26 27 26 24 20 23 26 26 24 23 21 19 18 16 14 13 14 15 14 14 14 13 11 10 10
22 23 25 27 26 21 18 18 26 27 27 25 23 24 25 26 26 24 21 20 17 14 12 11 13 15 16 17 15 15 14 12 11
30 27 25 27 28 29 23 14 27 28 28 26 27 28 26 27 26 24 23 21 18 15 12 10 9 11 14 14 13 14 12 9 9
43 39 34 27 34 29 23 17 25 28 28 26 27 29 28 28 27 26 24 22 19 17 15 13 13 13 12 11 9 8 7 7 6
32 43 40 36 33 29 25 22 19 26 29 27 26 25 26 27 28 27 25 22 21 18 16 16 16 14 12 10 10 9 9 8 8
23 41 44 35 32 26 31 25 20 18 27 28 29 27 27 28 27 26 24 24 20 19 18 16 16 15 15 13 12 12 12 10 10
18 24 32 33 27 25 29 23 19 13 23 28 30 31 31 27 26 26 27 25 22 19 17 15 13 13 15 16 16 16 15 15 13
21 21 22 25 26 24 22 21 20 18 19 22 30 33 30 29 28 28 29 25 21 20 17 14 13 12 15 18 18 20 19 17 16
23 25 28 27 29 30 30 27 23 22 24 23 22 32 30 27 26 28 27 23 22 22 20 19 16 16 16 15 18 22 23 22 19
33 32 33 28 25 23 23 28 29 27 27 21 19 20 28 28 30 31 28 26 25 25 25 24 23 20 16 16 15 18 19 24 26
41 39 32 25 25 28 26 26 27 30 26 21 17 23 29 33 34 34 32 33 30 29 29 28 26 23 20 19 18 20 21 20 21
42 41 34 28 25 27 30 29 30 26 25 28 27 26 31 31 34 35 33 34 35 32 32 31 31 29 28 27 26 27 28 27 25
41 38 33 29 27 26 29 32 32 34 30 30 33 35 34 30 32 36 38 36 35 38 39 35 34 34 33 31 33 33 35 34 33
43 40 37 33 29 27 28 28 32 34 36 37 39 41 43 43 43 44 45 45 45 45 44 44 47 41 43 43 42 41 41 38 39
44 43 41 37 35 33 33 31 31 30 30 34 39 42 46 46 45 45 47 49 52 53 51 48 46 45 48 49 49 50 49 47 43
52 50 46 46 44 44 43 41 38 32 31 30 29 32 39 42 46 49 51 52 54 56 54 52 53 52 52 51 50 48 45 45 45
57 57 56 52 51 45 42 44 39 34 34 34 32 31 32 34 37 42 45 47 52 54 51 48 45 43 42 41 40 42 43 44 45

GFSFLT1_500_spd_042.txt.gz
Wind_Speed
26 26 21 19 16 15 15 20 25 26 26 25 26 26 26 25 22 20 18 17 17 17 15 11 10 6 2 2 2 3 4 5 6
33 32 28 23 17 17 20 20 23 25 26 29 29 30 29 27 24 21 19 21 19 17 14 12 10 7 6 6 5 3 4 5 4
33 31 30 29 22 16 22 23 26 29 30 30 31 33 33 30 27 25 22 21 19 18 16 13 11 10 9 9 8 7 7 7 6
37 36 34 30 26 21 18 26 27 30 30 30 33 35 35 32 29 27 24 24 22 19 16 14 12 13 13 12 11 10 11 9 7
37 37 36 33 26 26 23 24 29 29 31 29 28 32 34 32 32 29 27 26 23 20 17 15 15 14 14 15 13 14 12 11 10
38 39 35 37 27 30 30 24 26 30 31 31 31 30 30 33 32 29 27 28 25 22 19 17 15 13 15 16 14 14 12 11 11
41 38 37 39 33 32 30 27 23 31 32 33 33 33 32 31 30 29 29 28 26 22 19 17 15 14 14 13 11 11 10 12 11
45 44 43 44 41 39 35 32 28 31 34 35 35 33 32 30 30 30 31 29 24 22 19 19 18 16 14 12 12 12 11 11 10
51 52 51 45 39 33 35 33 31 30 33 35 34 32 33 33 33 33 30 28 24 23 21 22 21 17 15 15 15 14 13 12 11
49 35 51 43 41 34 36 31 29 33 34 34 32 30 35 33 34 32 30 27 26 23 23 22 20 18 16 17 18 17 17 15 12
36 25 26 36 44 40 35 32 28 31 27 32 33 32 33 33 32 31 30 28 27 26 23 22 19 17 17 19 19 18 19 18 15
26 27 33 46 46 41 36 32 28 29 26 27 33 31 32 32 32 32 31 29 29 28 26 23 19 17 16 15 17 19 21 21 17
32 27 34 40 44 34 29 27 28 26 23 22 26 27 31 32 32 32 32 33 33 31 29 25 23 20 19 18 17 16 17 18 19
34 31 31 36 31 32 32 30 31 27 27 22 19 20 27 34 34 32 34 36 34 31 31 30 26 24 22 18 18 18 19 18 17
38 30 33 33 32 31 32 34 34 33 32 28 26 23 24 30 37 36 34 35 35 32 31 29 27 26 24 23 24 25 24 25 23
45 38 38 39 36 35 37 36 34 35 31 31 25 24 20 22 29 40 39 38 41 36 35 33 30 31 30 30 32 32 33 33 30
50 49 42 37 35 33 39 38 35 32 30 27 26 26 23 26 24 30 43 40 35 43 45 40 41 40 39 39 38 37 37 36 35
55 53 52 46 41 34 36 40 37 35 33 32 31 31 30 34 30 37 39 40 41 45 43 41 43 44 47 50 42 43 45 43 45
57 50 51 49 44 37 33 36 42 43 43 42 40 39 37 35 38 42 46 47 49 49 54 52 52 49 50 50 47 53 47 50 51
56 53 48 43 41 39 36 33 31 33 35 38 39 41 42 45 47 48 50 51 50 49 51 54 55 55 55 53 52 52 53 53 55

GFSFLT1_500_spd_045.txt.gz
Wind_Speed
37 34 30 27 25 25 26 31 35 33 34 32 29 28 26 26 22 21 19 16 16 17 16 14 13 11 8 9 8 6 4 6 7
36 35 32 30 28 26 27 32 36 35 33 35 33 31 29 27 24 22 19 19 18 18 16 14 13 10 7 5 6 5 4 3 4
39 36 33 32 29 30 28 30 38 40 38 36 36 35 33 30 28 26 24 20 21 21 19 16 15 13 9 7 5 6 5 3 3
41 35 34 33 28 28 29 31 36 37 37 37 37 37 35 33 30 27 25 23 24 23 20 18 17 14 12 10 8 7 6 4 4
44 38 38 35 31 32 33 30 31 34 35 35 35 35 36 34 33 31 28 26 26 25 24 21 19 17 15 11 11 9 7 7 6
49 43 42 37 36 31 32 34 32 32 34 33 34 35 36 36 35 32 30 29 29 28 26 23 21 18 16 14 13 12 10 8 8
53 50 48 44 41 34 31 30 32 32 33 35 34 35 36 36 36 34 32 32 31 30 28 25 22 20 17 15 12 12 11 11 10
59 53 55 49 45 42 36 33 31 34 35 37 36 34 33 33 35 35 36 34 34 32 29 26 24 21 18 15 12 12 13 13 12
62 60 58 53 49 47 37 36 31 30 33 36 36 36 33 34 34 34 34 33 34 34 31 28 25 23 19 17 15 15 15 14 14
59 59 60 59 53 48 41 38 33 29 29 35 36 36 36 35 35 33 33 33 34 32 29 29 27 25 21 19 18 17 16 16 15
60 61 57 59 56 51 45 41 32 33 31 29 36 37 36 35 35 35 36 35 32 31 30 29 28 25 22 20 20 19 19 20 16
57 60 62 58 56 49 43 42 37 35 33 28 35 37 35 33 36 37 37 33 32 31 31 31 28 26 21 19 20 20 21 20 18
49 56 57 40 42 51 46 42 34 36 32 26 30 35 33 33 35 37 35 35 34 33 33 32 29 24 21 19 18 18 18 16 16
42 40 38 40 44 46 50 43 40 33 34 23 24 31 34 34 34 34 35 35 35 33 34 31 28 25 23 20 17 15 14 13 13
34 32 32 31 39 47 45 44 42 37 33 28 24 25 35 36 36 36 35 34 34 34 34 31 28 27 25 21 19 20 21 21 18
41 38 33 31 40 46 49 48 43 35 35 33 29 28 29 33 35 35 35 35 35 35 35 32 31 28 25 24 26 26 26 25 25
44 42 36 41 39 44 44 48 54 45 42 33 32 30 29 30 30 32 37 38 38 37 36 35 36 35 34 35 34 33 32 33 32
48 48 43 42 43 46 45 39 38 37 42 38 48 32 31 30 28 30 31 41 40 40 39 43 40 39 42 42 42 43 42 41 41
52 51 50 49 46 45 44 45 45 42 42 38 32 38 39 36 32 32 35 37 40 44 44 38 42 49 47 48 50 50 50 45 46
56 57 57 57 52 48 48 44 49 49 47 52 42 44 42 51 41 49 44 40 43 44 44 48 45 47 47 49 52 47 46 48 47

GFSFLT1_500_spd_048.txt.gz
Wind_Speed
36 35 34 33 29 28 27 31 36 34 35 34 33 29 27 27 24 21 19 19 19 18 16 14 13 12 10 9 8 7 8 7 8
39 36 37 34 31 29 27 31 36 37 36 37 35 33 31 30 26 23 21 20 20 18 17 16 15 13 10 8 7 5 5 6 6
44 40 39 37 35 31 28 30 35 42 41 38 38 36 35 33 29 27 26 22 19 19 19 18 16 15 12 8 7 6 4 5 6
48 45 42 38 34 31 31 31 36 40 43 43 42 39 37 35 31 30 29 24 23 20 19 19 17 16 13 11 9 8 8 7 7
49 49 44 41 37 35 33 31 31 38 44 43 41 40 39 37 34 33 31 27 24 23 22 21 20 18 16 14 12 12 11 10 9
50 52 47 46 43 39 34 30 29 32 40 42 42 41 40 38 36 35 32 30 27 24 24 24 23 21 18 17 16 15 14 13 10
55 58 53 50 47 41 36 32 31 32 37 43 43 43 41 40 38 35 33 32 30 27 25 26 25 24 21 18 17 16 14 14 13
59 59 56 52 47 44 37 34 31 33 36 41 43 42 42 40 39 38 37 35 32 30 28 27 27 27 23 19 17 15 15 16 14
63 62 61 56 51 48 43 39 33 30 30 35 39 40 38 39 41 40 39 36 34 32 30 30 29 28 25 21 19 17 18 16 15
61 65 65 60 55 51 46 43 36 33 30 28 32 35 38 38 38 39 39 38 37 34 31 33 31 30 27 24 21 19 18 18 16
54 63 66 64 60 55 50 44 39 37 32 31 27 32 37 37 36 34 33 35 35 34 33 33 33 31 29 27 23 21 20 18 17
55 62 68 66 63 58 55 50 44 38 34 32 29 27 31 36 36 35 35 32 32 33 34 33 32 31 30 26 25 21 20 19 17
52 59 64 67 65 60 59 53 46 41 37 32 30 27 24 32 36 36 34 34 35 36 36 33 33 32 30 27 24 21 19 17 17
48 53 62 64 64 63 59 55 51 46 40 35 33 31 30 30 33 36 35 36 39 38 35 34 33 31 29 27 26 22 20 18 18
47 45 55 62 61 61 57 61 55 47 44 39 34 35 28 28 32 35 35 36 37 36 36 34 33 31 29 28 26 23 20 19 21
43 40 49 58 62 54 54 56 52 50 47 45 52 31 30 28 33 34 33 33 34 35 35 33 32 31 30 29 27 22 20 19 20
40 38 40 39 43 48 53 56 59 56 56 55 47 36 36 26 28 35 34 33 34 34 33 32 32 32 31 31 30 28 26 24 25
41 39 35 37 41 49 52 52 60 60 56 52 46 41 38 31 29 34 35 35 36 35 34 35 35 34 34 36 35 33 32 33 34
45 42 44 42 39 41 51 60 54 58 56 49 42 43 42 37 34 35 38 42 40 36 32 33 36 38 39 40 39 40 41 41 41
49 50 52 50 48 45 46 51 57 56 51 46 52 52 57 45 40 39 40 43 43 46 44 40 41 40 42 46 45 45 46 47 48

GFSFLT1_500_spd_051.txt.gz
Wind_Speed
34 33 30 27 27 25 21 24 30 31 29 32 30 30 27 26 25 21 19 19 20 18 16 14 13 11 9 9 7 5 5 7 7
36 37 37 30 30 25 27 25 26 33 31 33 33 32 31 29 28 24 21 20 20 19 17 17 16 13 10 8 7 5 3 2 4
42 32 41 35 33 29 31 27 26 30 36 35 35 36 34 32 30 27 25 22 20 19 20 19 18 16 13 9 7 5 4 4 3
47 44 47 38 35 33 34 32 28 27 34 38 38 36 36 34 32 29 28 25 22 21 20 21 19 18 14 11 8 6 6 6 6
51 49 44 40 37 36 37 36 31 26 28 38 39 39 39 37 36 34 31 27 24 23 22 24 22 21 18 14 11 10 9 9 8
51 52 52 47 41 41 40 37 33 27 26 29 39 40 41 40 37 35 31 28 27 24 24 25 24 22 20 18 14 13 12 12 12
50 57 57 54 47 47 45 41 37 30 25 29 34 41 41 41 38 35 32 32 29 26 25 25 25 23 22 20 16 13 13 14 14
49 55 60 57 52 53 49 44 39 34 27 29 31 38 40 39 38 37 35 34 32 29 27 26 27 26 24 20 16 14 14 15 14
46 56 62 59 59 58 52 48 41 37 30 26 29 32 37 38 39 39 38 36 34 31 29 28 28 27 25 22 18 17 15 14 13
49 50 58 64 55 58 54 48 41 37 31 27 28 29 34 36 38 39 39 38 37 35 32 32 29 29 27 24 21 19 17 15 14
51 59 64 63 58 59 53 49 46 40 37 32 26 27 31 35 38 37 38 39 38 38 37 35 32 31 30 27 24 22 19 18 18
55 51 54 56 57 60 56 54 49 43 39 34 30 27 26 30 33 36 36 35 36 38 40 37 34 32 31 28 26 24 22 20 19
60 52 51 56 59 61 59 57 52 46 41 39 33 26 21 22 29 33 33 32 31 31 34 36 36 34 31 31 29 27 23 21 20
57 55 54 51 60 62 61 58 55 51 46 41 32 28 28 27 25 29 32 34 34 33 32 33 34 33 32 32 30 27 24 21 20
61 52 47 50 54 64 64 62 60 55 50 40 42 37 32 29 24 25 32 34 33 33 32 32 32 32 33 32 29 26 24 22 22
57 56 49 48 51 54 62 64 63 58 53 51 46 41 37 35 31 29 28 35 33 33 33 33 33 33 33 30 28 27 25 23 23
48 52 52 49 51 54 57 61 64 62 61 55 50 45 44 40 37 31 27 34 34 35 35 36 36 36 34 31 30 29 26 25 26
49 47 48 47 49 53 55 58 59 64 60 56 53 49 49 47 49 36 26 33 35 36 37 37 37 37 36 33 31 29 28 28 27
49 43 42 44 48 50 54 58 57 55 57 58 61 57 55 54 49 38 29 30 35 38 35 34 36 36 36 36 36 36 34 31 30
47 43 45 43 47 47 48 52 52 53 56 57 58 60 58 55 52 43 34 33 34 37 36 35 37 37 38 38 38 37 37 38 39

GFSFLT1_500_spd_054.txt.gz
Wind_Speed
31 24 24 22 21 21 14 10 12 23 23 25 25 24 23 23 22 21 20 18 16 14 12 10 11 8 7 9 9 8 8 5 4
37 38 30 29 27 22 21 18 14 14 27 27 27 27 26 24 23 22 21 19 19 17 15 14 12 10 8 7 6 5 5 4 3
48 38 47 36 34 25 22 22 21 16 19 29 29 30 28 27 26 24 23 21 20 20 18 16 14 12 9 8 6 4 2 3 2
53 45 23 35 42 27 25 25 26 20 17 27 30 30 29 29 28 26 25 23 21 20 20 18 17 15 12 10 9 6 4 2 2
49 49 51 45 33 35 27 25 25 24 19 19 30 31 33 31 30 30 27 25 23 23 22 21 21 19 17 15 12 9 6 5 4
34 43 46 40 26 20 23 30 25 26 22 19 20 31 33 34 32 31 28 27 26 23 23 22 22 21 20 19 16 12 9 7 6
36 36 39 49 46 39 30 31 30 27 25 23 22 24 34 35 33 33 30 28 28 26 25 24 23 23 22 22 18 14 12 10 8
40 36 40 44 46 55 22 32 35 32 30 27 23 23 27 34 35 34 33 31 30 28 27 25 24 24 24 22 19 17 15 13 9
52 53 33 35 47 47 42 43 36 36 33 29 25 23 21 30 36 35 34 33 33 32 28 28 26 23 24 23 20 19 17 14 11
52 55 49 47 51 44 44 41 37 40 35 32 27 24 24 24 34 35 33 34 34 32 30 30 26 24 24 23 23 22 19 16 12
47 53 57 57 57 60 49 25 50 35 37 34 27 25 24 23 25 31 32 32 31 33 32 31 30 28 26 26 26 24 23 19 15
48 46 52 58 57 59 57 62 42 36 39 34 31 25 20 20 22 25 29 29 29 31 32 33 32 32 30 28 28 28 25 23 18
52 49 51 55 59 61 58 49 45 45 35 34 33 26 19 20 21 24 26 27 29 31 31 32 34 35 35 33 32 31 28 25 21
59 31 62 57 56 54 54 52 50 49 41 40 32 30 29 25 23 23 25 29 31 32 31 31 32 33 36 36 34 33 32 28 25
65 69 36 53 50 51 52 54 53 50 48 42 38 38 34 30 26 26 26 26 28 32 33 32 29 30 32 35 35 35 34 30 27
83 59 66 51 53 55 51 51 53 52 52 49 46 42 38 34 33 29 27 27 26 31 34 34 32 32 31 31 32 34 32 30 29
82 71 62 60 55 55 52 51 53 53 55 54 51 48 43 41 36 34 32 29 26 26 33 36 35 33 33 32 33 33 32 32 30
72 79 75 66 55 60 57 55 54 56 58 57 54 50 48 46 42 37 37 32 30 28 28 34 36 35 36 37 36 34 33 32 31
62 66 68 68 62 57 52 53 54 54 57 58 59 54 52 49 47 41 38 37 33 28 26 30 35 35 37 36 35 35 35 35 34
61 61 60 58 59 59 54 47 51 53 53 53 57 58 56 54 52 47 43 40 40 35 26 27 34 33 33 34 34 35 35 36 38

GFSFLT1_500_spd_057.txt.gz
Wind_Speed
20 24 25 20 19 13 13 11 13 18 17 19 22 23 21 20 19 19 18 17 16 14 11 10 9 7 8 9 8 6 7 6 6
22 22 25 29 29 18 16 13 11 13 18 20 22 25 25 23 22 21 20 19 18 16 14 12 10 8 7 8 6 5 4 4 4
27 34 30 33 33 27 22 18 17 13 13 19 25 25 26 25 25 25 24 21 19 18 16 13 12 11 7 7 6 4 2 2 2
22 25 35 38 43 28 29 27 23 17 13 13 21 24 26 26 24 25 26 23 21 19 17 15 13 13 12 9 7 6 3 1 1
23 25 30 38 21 43 34 25 23 21 16 13 16 27 28 29 28 28 25 25 24 22 21 20 18 17 15 14 11 8 5 3 3
27 23 31 32 34 28 28 26 25 23 20 16 15 18 28 29 29 27 25 26 26 23 22 22 22 19 18 16 15 12 8 8 6
36 36 25 20 29 32 22 38 31 23 20 18 17 15 17 28 31 30 29 28 28 25 24 24 22 21 19 19 17 15 11 10 10
41 37 32 27 31 36 27 27 30 31 25 17 17 18 15 19 31 34 34 31 29 28 26 24 25 23 21 19 17 16 15 13 10
40 39 42 37 38 39 37 35 35 33 34 21 17 19 18 20 25 33 35 34 32 30 29 27 25 23 22 20 19 19 18 15 12
47 38 29 35 42 37 34 29 35 52 36 26 22 22 20 19 20 26 33 36 35 31 30 31 26 25 24 22 23 22 20 18 15
55 52 57 46 46 40 32 37 48 47 41 38 29 26 22 20 17 20 30 35 33 32 31 31 30 28 27 26 24 24 22 21 19
55 58 59 55 58 53 49 50 48 43 65 36 34 32 21 16 16 18 24 30 32 33 33 32 32 31 29 28 27 25 24 24 23
60 60 63 62 61 55 51 56 45 48 40 40 33 27 23 18 17 17 19 27 31 33 32 33 34 33 32 31 30 29 28 26 25
68 68 62 59 58 52 47 56 48 27 47 25 19 21 25 23 20 19 21 24 27 30 31 32 32 32 34 34 33 33 32 30 27
70 69 62 63 60 60 51 51 46 43 22 29 28 33 28 26 26 23 23 22 24 26 29 31 32 32 32 32 33 35 36 34 31
82 71 65 56 55 58 47 57 54 46 50 49 36 36 34 33 31 29 25 25 24 26 28 28 29 31 31 30 30 32 35 35 34
87 84 71 69 54 52 53 60 55 50 47 49 43 41 41 39 37 33 31 27 26 28 27 24 26 30 31 31 32 31 31 32 33
75 79 84 78 60 54 49 50 48 50 48 50 49 45 45 43 40 36 34 32 30 28 26 25 23 25 33 35 34 32 33 34 33
79 78 87 88 79 55 50 52 45 44 41 46 49 47 48 48 45 41 37 35 31 30 28 28 25 24 29 36 36 36 37 36 37
76 75 75 89 88 75 65 54 47 48 45 44 47 49 48 49 49 46 43 40 37 32 30 30 28 27 28 32 35 38 40 39 41

GFSFLT1_500_spd_060.txt.gz
Wind_Speed
10 19 18 19 15 17 19 20 21 18 20 22 26 24 21 20 17 14 13 15 15 15 14 10 7 6 9 8 7 7 7 7 7
17 14 21 22 23 21 21 22 25 25 23 23 24 28 26 23 23 19 16 15 15 15 13 11 9 8 8 6 6 6 5 5 5
15 18 20 18 28 21 19 18 23 30 30 26 25 26 29 27 25 25 23 18 16 14 13 12 11 9 8 7 5 4 4 3 3
17 8 12 16 24 25 24 20 19 21 26 31 28 25 27 30 28 25 25 22 20 17 14 13 13 12 9 8 7 4 1 1 1
30 25 21 16 18 24 29 29 24 23 22 22 29 29 29 29 30 29 27 26 23 20 19 17 16 15 14 11 9 7 5 2 2
29 28 20 21 20 29 30 34 28 29 27 25 25 32 32 30 31 30 28 27 27 25 23 22 20 19 18 16 15 13 10 8 5
36 36 33 28 30 29 21 32 44 38 33 28 24 23 29 31 29 30 31 31 30 29 26 24 23 22 22 20 19 17 14 12 9
40 40 37 36 33 26 27 37 36 39 35 33 26 21 21 26 32 32 33 34 33 31 30 27 26 25 22 22 21 19 18 16 13
43 41 41 44 34 22 25 31 33 37 35 33 32 27 21 23 24 30 32 33 34 33 31 30 28 26 26 23 20 20 20 19 16
40 45 45 42 35 32 30 21 32 44 45 40 35 34 26 23 21 21 25 34 36 35 33 32 29 28 26 24 23 23 22 22 20
36 40 45 48 42 42 38 33 37 43 43 40 39 35 32 28 23 22 23 31 37 36 36 33 31 30 28 27 26 25 24 25 24
46 41 45 47 48 48 44 40 37 41 45 46 43 37 34 33 29 27 26 26 35 38 37 36 33 32 32 29 29 28 27 26 25
63 54 44 42 54 49 47 51 47 44 35 42 45 33 36 34 31 30 28 27 32 39 39 38 38 36 34 33 32 33 31 29 27
64 66 57 52 56 51 58 60 48 50 38 35 44 46 45 39 35 32 30 30 33 38 39 38 39 37 36 35 34 33 33 32 29
81 74 70 63 59 63 66 63 56 53 41 38 38 53 53 50 39 35 34 32 31 33 36 36 36 36 35 34 34 35 35 35 33
82 86 79 77 70 69 61 63 62 57 40 40 42 34 52 59 41 34 31 31 29 33 34 35 36 35 34 35 36 37 37 38 37
83 88 90 75 73 79 72 74 70 61 49 42 41 35 37 44 44 41 36 32 31 32 31 30 30 30 32 34 36 35 36 35 38
80 82 90 87 78 73 71 81 70 59 58 50 49 47 34 44 48 38 41 41 38 32 28 26 25 23 28 32 34 34 38 39 39
86 85 83 93 87 85 85 80 67 75 68 58 57 50 53 45 46 44 46 44 40 36 32 29 27 27 26 26 26 32 38 40 41
93 91 88 80 98 93 87 97 80 73 65 62 61 48 47 48 51 52 49 46 43 39 37 35 33 31 29 29 29 27 29 37 40

GFSFLT1_500_spd_063.txt.gz
Wind_Speed
14 32 25 17 18 20 21 22 22 21 24 27 24 22 22 21 18 17 15 15 15 13 13 13 11 9 8 10 9 9 9 8 10
15 24 25 22 19 18 21 24 26 24 25 28 28 24 23 23 20 18 18 18 16 13 11 11 12 12 12 10 9 9 9 8 7
23 28 24 23 23 17 17 24 28 25 25 26 29 30 26 24 24 22 21 20 18 16 15 13 11 12 12 11 9 7 7 7 6
29 29 20 22 31 28 25 23 23 25 26 25 24 27 30 27 25 25 23 20 18 16 15 13 14 13 11 10 11 8 5 5 4
35 32 28 27 23 30 28 29 27 23 23 28 28 28 30 31 30 28 27 24 22 19 17 16 16 14 13 12 11 9 7 4 3
35 39 35 36 31 32 33 33 35 29 27 27 33 35 33 31 32 32 30 28 27 24 22 20 18 18 17 16 13 11 9 6 4
40 40 39 37 34 34 35 38 40 36 32 30 30 34 38 35 33 33 34 32 31 29 26 25 23 22 21 19 17 15 12 10 9
43 44 43 41 39 40 39 39 43 40 41 38 36 33 34 38 39 37 36 37 35 33 31 28 26 25 25 23 21 19 17 16 14
47 51 49 47 46 42 42 40 42 47 45 41 36 37 34 35 43 43 41 39 39 38 35 33 31 28 27 26 24 23 21 20 20
51 52 55 51 51 46 50 39 39 48 43 45 42 41 39 37 36 43 44 43 43 41 38 36 33 31 29 26 25 25 24 24 22
58 54 57 55 54 50 44 25 23 36 40 48 47 44 43 41 37 36 43 45 44 43 42 39 37 35 33 31 28 27 26 26 24
59 61 59 60 57 52 48 39 33 35 33 46 44 43 44 45 41 38 39 40 42 44 45 43 39 39 38 34 32 31 29 28 25
63 61 62 61 62 59 57 51 40 41 36 40 54 53 45 43 44 41 39 38 37 40 46 46 45 43 40 37 37 36 34 33 30
68 68 61 65 66 65 63 58 49 51 43 40 48 50 46 47 44 44 40 40 40 39 42 50 49 47 44 41 39 39 37 36 32
75 74 71 67 68 69 64 61 54 52 48 46 45 47 47 51 49 48 46 43 42 41 41 44 51 51 47 43 40 39 38 37 34
77 77 77 79 70 72 70 62 57 56 54 57 39 36 36 47 52 50 43 41 41 41 42 41 47 50 45 42 42 41 40 40 39
83 80 80 83 83 77 75 72 66 64 64 60 57 46 41 39 41 52 55 45 46 43 43 39 40 45 43 43 44 43 42 42 43
90 83 83 83 91 87 86 75 76 76 75 66 59 55 48 44 55 51 54 54 50 45 40 38 37 40 42 42 43 42 42 43 43
88 90 85 86 85 93 86 82 70 78 75 69 61 56 52 50 55 60 68 67 55 48 42 37 34 37 39 39 43 43 43 42 41
71 85 89 88 86 87 97 91 88 84 71 73 60 64 59 59 49 36 61 64 61 52 47 43 40 38 37 34 34 36 37 36 35

GFSFLT1_500_spd_066.txt.gz
Wind_Speed
18 25 28 18 21 20 22 24 23 24 26 26 23 23 22 20 18 17 16 18 18 16 16 14 13 13 12 12 12 12 11 10 12
18 17 30 22 19 21 23 25 25 23 27 28 27 25 23 22 20 18 19 20 19 17 16 14 13 14 13 12 11 12 11 12 12
22 18 32 29 26 24 24 28 28 26 28 30 32 30 26 25 23 21 20 19 18 18 16 15 13 14 13 12 12 11 11 11 12
25 21 32 32 27 30 28 31 31 30 28 30 32 31 28 27 26 25 23 20 18 16 15 14 15 16 15 12 10 11 11 10 10
31 28 35 31 33 32 34 31 32 32 33 31 33 36 35 30 29 27 25 22 20 17 17 15 15 15 14 14 12 10 9 9 9
37 36 42 35 39 38 36 37 35 36 36 38 38 37 37 36 33 30 28 27 26 23 20 17 16 16 16 15 15 12 10 9 9
37 37 42 44 42 39 39 40 38 34 33 35 40 38 38 38 37 35 34 33 31 28 26 23 21 20 19 19 16 14 12 11 10
39 39 41 48 47 44 39 42 43 42 40 35 33 35 39 36 37 38 38 38 36 34 31 28 27 25 23 22 20 18 16 15 14
41 43 47 49 47 47 43 43 44 45 42 37 36 35 33 35 38 38 39 40 40 39 36 34 32 29 28 27 24 23 21 20 19
51 50 49 54 53 47 46 44 42 41 39 38 43 41 37 35 34 37 41 42 43 42 40 39 37 36 33 30 29 28 26 24 24
56 58 58 58 60 53 50 46 45 44 43 44 48 50 48 46 44 40 40 45 45 44 44 42 40 40 38 35 32 31 29 28 27
56 63 62 63 61 59 57 50 49 49 45 52 49 52 55 51 47 42 40 38 44 48 48 46 44 42 41 39 37 35 33 33 30
63 62 68 68 65 63 63 60 53 56 49 56 53 56 53 54 51 46 41 41 41 46 49 49 49 45 42 41 40 40 39 38 34
69 68 67 67 72 68 66 65 59 57 59 46 39 52 51 52 49 46 45 44 42 41 43 48 49 50 46 44 43 44 44 43 39
78 75 72 71 71 74 70 66 65 58 59 39 41 43 46 52 51 52 48 46 43 42 41 41 43 46 49 48 46 45 46 45 42
85 81 80 77 74 75 72 69 67 67 61 53 51 47 45 47 54 56 51 51 47 46 44 43 43 42 43 49 51 49 48 47 44
91 90 85 83 81 77 76 72 71 71 71 63 62 57 55 46 43 58 54 51 50 51 45 43 43 43 43 45 50 51 50 48 49
71 93 94 88 84 81 81 79 76 75 74 73 70 67 65 56 56 61 49 55 56 54 47 45 43 41 43 45 45 47 52 53 52
42 63 93 96 89 85 84 86 84 78 77 80 77 71 65 58 51 47 45 45 53 62 57 50 43 45 45 43 41 46 51 52 51
36 36 53 90 96 90 86 88 92 87 83 85 85 77 73 65 64 59 52 46 45 47 44 48 59 49 47 43 41 44 49 50 50

GFSFLT1_500_spd_069.txt.gz
Wind_Speed
20 16 23 24 22 23 22 23 22 24 24 27 26 24 21 19 18 18 19 19 19 18 17 16 14 12 9 10 10 10 9 10 12
19 20 22 28 25 23 24 25 25 26 26 28 28 27 25 22 21 20 21 21 20 19 17 16 15 14 13 11 11 12 10 11 12
21 20 23 26 24 24 25 27 30 30 32 32 32 29 28 27 27 24 22 20 21 20 19 16 15 15 14 13 12 11 12 11 13
26 22 24 27 21 26 28 30 32 34 34 35 36 34 30 28 28 26 24 23 21 21 20 18 17 16 15 12 10 9 9 11 12
28 26 24 28 31 25 29 31 33 35 37 37 39 39 36 32 32 29 27 25 23 22 21 20 17 18 17 15 13 10 7 8 10
32 31 29 29 35 27 27 31 33 36 38 37 38 41 40 35 33 33 30 29 27 24 22 21 20 19 18 18 16 13 10 8 7
37 36 35 35 32 29 38 34 34 35 37 39 39 38 39 38 35 35 34 33 32 30 27 24 22 22 21 20 18 16 13 12 10
39 40 40 40 40 39 37 37 35 37 37 38 38 40 38 36 38 37 35 36 35 33 30 28 27 25 23 22 20 19 17 17 15
39 40 41 43 44 45 46 44 40 38 39 40 40 40 39 39 41 40 41 39 38 36 34 33 31 27 26 24 22 22 22 21 19
44 44 43 44 43 45 50 51 48 42 43 46 50 48 40 41 43 42 40 42 42 40 38 38 35 33 31 28 27 26 26 25 24
46 48 48 47 47 47 49 52 53 50 47 52 50 48 44 39 39 39 43 44 42 42 43 42 40 38 36 34 32 31 30 30 28
51 51 52 52 52 52 52 54 56 52 48 50 47 36 40 40 43 40 39 39 43 46 45 44 44 43 41 38 37 37 35 35 33
55 56 56 58 58 58 59 59 60 59 56 52 51 50 48 45 50 47 45 44 42 43 45 46 46 44 43 41 39 39 40 39 37
62 61 62 60 66 67 65 65 65 65 63 60 59 57 61 50 52 51 49 53 50 48 47 44 46 46 44 42 40 41 41 41 40
65 69 69 69 66 71 74 71 70 69 68 68 64 62 58 54 50 46 48 52 54 52 48 44 41 43 46 45 44 43 43 45 43
68 72 72 75 75 72 73 80 78 76 74 72 68 67 64 58 55 45 55 57 59 54 50 46 44 40 40 42 46 47 46 46 46
60 63 73 80 80 81 78 77 82 81 80 78 74 69 67 61 56 54 58 62 61 57 54 48 45 42 40 39 39 39 42 45 49
56 61 63 67 78 85 85 83 82 84 87 85 81 76 73 67 61 52 54 62 61 57 55 51 47 45 44 44 39 37 43 43 43
51 56 56 56 58 69 87 90 88 87 87 87 86 82 75 71 66 60 62 55 55 56 58 57 53 49 48 45 41 41 41 44 43
46 50 54 54 55 56 59 87 96 92 92 91 90 88 83 69 72 68 64 59 56 50 53 64 58 54 52 50 44 44 44 45 45

GFSFLT1_500_spd_072.txt.gz
Wind_Speed
19 17 17 17 20 21 23 23 21 22 24 27 27 25 21 18 19 18 18 18 18 16 16 14 13 12 12 9 9 8 8 9 10
23 20 22 23 23 25 25 25 23 23 25 27 30 28 23 21 21 20 20 20 20 18 17 16 15 13 12 12 10 10 10 8 10
25 24 21 27 27 26 27 28 28 28 29 29 33 33 29 26 25 22 20 20 21 21 19 17 17 16 12 11 12 11 9 10 11
26 23 24 26 30 30 27 31 31 31 31 32 34 32 30 28 27 26 24 23 22 22 22 20 18 17 16 13 13 12 11 11 11
29 29 25 30 36 28 27 30 32 31 32 32 34 35 35 32 32 29 26 26 25 24 24 22 19 19 18 16 15 14 14 13 12
31 31 30 28 27 23 27 26 26 28 30 32 33 35 38 36 32 30 28 29 28 27 27 25 22 20 21 19 17 15 13 13 12
36 34 33 32 31 30 29 32 28 30 31 31 32 33 36 37 35 33 32 31 30 28 28 27 24 23 22 22 19 18 16 14 13
40 40 39 37 36 35 33 37 37 33 34 35 35 34 34 35 38 37 35 34 32 31 29 29 28 26 23 22 21 20 18 17 15
41 45 45 44 43 42 41 38 37 34 34 43 39 38 38 39 39 41 41 37 35 35 33 31 30 27 26 24 23 22 21 20 18
44 45 45 47 48 47 46 44 42 43 41 36 32 41 39 41 41 42 45 45 42 39 37 36 34 32 29 27 26 25 25 24 23
47 47 47 48 48 49 49 51 49 46 46 44 41 37 41 45 46 46 47 48 46 44 42 40 37 37 35 33 31 30 29 28 26
51 52 52 51 50 50 50 50 51 50 46 48 48 47 45 51 51 56 51 50 44 43 44 43 42 41 39 37 36 35 35 34 30
55 56 56 56 56 56 55 53 53 54 52 50 51 52 52 51 45 55 53 53 48 47 47 45 42 42 41 39 38 40 39 38 36
55 56 59 60 60 61 60 59 58 57 57 56 54 54 53 55 52 49 43 49 44 44 43 43 42 42 43 41 39 40 41 42 40
55 58 59 61 62 64 65 65 64 63 62 60 60 59 59 59 57 50 48 45 47 46 46 45 42 41 39 38 41 42 42 44 44
56 56 58 59 63 66 67 70 71 70 69 67 65 64 64 63 61 59 59 55 52 50 51 50 49 46 43 38 39 41 45 45 46
56 57 57 60 63 66 68 71 73 75 75 74 72 71 68 68 67 64 63 59 56 50 44 46 52 53 48 41 42 40 41 45 47
51 55 59 62 65 67 69 72 74 77 79 80 79 77 77 74 72 69 68 61 60 55 50 49 51 51 51 48 45 42 42 41 42
42 48 55 56 58 63 67 69 72 78 80 82 85 85 83 82 80 77 75 72 65 62 56 57 50 54 51 51 48 45 43 43 41
39 40 42 50 55 56 60 64 67 70 75 82 86 88 89 88 87 85 83 77 70 66 62 59 54 56 55 53 52 50 49 46 48

GFSFLT1_500_spd_075.txt.gz
Wind_Speed
15 16 13 12 15 18 21 22 20 20 20 21 23 23 21 18 16 16 15 15 15 14 12 12 10 9 7 8 10 8 7 8 8
19 18 20 19 17 17 21 23 23 23 23 22 24 26 23 20 19 18 16 15 16 16 13 9 12 11 9 8 8 10 10 10 10
31 29 25 31 24 20 21 24 26 26 26 26 26 28 27 23 22 20 18 16 16 18 16 15 11 13 11 10 10 9 10 11 12
30 29 29 26 24 25 24 26 29 29 29 29 29 28 30 27 24 23 22 19 18 18 19 18 17 16 14 11 12 11 11 12 12
34 30 28 26 27 25 28 26 25 26 31 30 30 30 31 31 29 26 24 22 20 19 20 20 19 17 15 14 13 12 12 12 13
36 37 33 29 26 31 36 33 29 27 29 32 32 30 29 31 31 27 26 26 23 21 20 21 21 19 18 17 15 14 13 13 12
39 38 38 36 35 35 32 26 36 24 26 28 27 26 26 28 31 30 27 28 26 24 22 22 22 22 19 19 18 16 14 14 13
41 39 40 38 37 35 31 26 21 31 27 29 30 28 28 28 29 32 32 29 27 27 26 24 25 24 21 19 20 19 18 16 15
42 44 44 42 40 39 36 37 32 29 24 32 34 32 30 33 32 32 33 35 34 32 30 28 27 26 24 22 20 20 21 20 18
43 45 47 48 47 45 43 41 40 38 36 41 34 33 37 39 37 36 36 37 39 37 35 35 33 31 29 27 25 24 24 23 21
44 44 46 48 49 49 49 48 47 46 44 44 45 34 32 34 43 39 38 37 38 40 40 37 37 36 35 33 31 30 28 29 27
48 47 49 49 49 50 52 53 51 50 49 48 45 43 39 39 31 41 40 38 38 38 41 42 40 39 39 36 34 34 33 33 32
50 50 50 51 51 52 52 52 53 54 54 54 52 50 48 44 44 38 39 46 43 43 43 44 46 45 44 43 39 39 38 38 37
54 55 55 55 56 56 56 55 55 56 56 55 54 53 52 50 48 46 45 44 36 45 42 49 48 47 48 48 46 43 43 43 42
52 55 58 59 60 61 61 61 61 60 59 58 56 56 56 54 52 52 52 51 47 43 42 52 55 53 49 48 46 45 44 44 45
46 50 55 59 60 62 64 66 66 65 65 64 62 61 59 59 58 56 55 53 50 46 41 38 39 47 48 46 46 44 46 45 45
49 49 50 52 55 58 62 65 67 69 70 71 70 68 66 65 63 62 60 57 55 54 51 48 51 48 52 50 47 41 41 43 44
51 53 52 54 56 57 59 62 64 68 70 73 73 74 73 71 70 68 66 65 62 59 59 55 58 51 45 49 45 46 47 47 46
44 49 52 52 53 55 57 60 63 66 68 70 73 75 76 76 76 75 74 71 68 67 64 63 62 57 53 47 45 52 53 55 48
41 42 46 47 44 45 51 56 63 65 67 71 73 74 76 78 78 79 80 80 77 73 70 69 68 63 57 54 50 53 56 55 55

GFSFLT1_500_spd_078.txt.gz
Wind_Speed
22 18 22 25 21 17 17 17 18 19 19 20 20 20 17 14 14 14 13 12 9 8 7 11 9 8 7 6 5 4 4 6 7
32 22 30 31 26 21 22 16 18 20 21 22 23 22 20 16 15 15 14 10 7 13 16 13 8 7 7 6 6 7 6 7 7
25 27 32 30 31 19 23 20 19 20 23 22 24 25 23 19 16 16 15 14 14 16 16 12 16 11 7 6 5 7 7 6 8
32 31 30 30 35 30 23 22 20 24 26 26 25 25 25 24 20 17 15 15 15 17 18 13 14 3 11 9 7 6 6 6 8
36 35 34 30 34 16 27 24 23 32 29 29 28 26 26 26 25 22 18 16 16 16 19 14 13 12 14 13 7 6 6 7 8
34 37 34 27 25 24 27 29 32 29 30 30 31 24 24 26 27 26 23 20 17 16 18 17 15 15 14 12 10 9 9 9 8
34 38 37 34 31 28 30 28 27 23 27 30 24 31 26 29 26 27 27 25 22 19 18 18 17 16 15 13 12 11 12 12 12
37 39 39 39 39 37 35 34 35 26 35 33 27 22 28 23 27 30 24 27 24 23 22 21 20 20 19 17 15 16 16 15 14
38 42 43 43 42 42 40 40 36 32 34 24 27 27 26 28 27 16 27 31 28 26 24 24 23 22 23 23 20 20 21 20 18
37 45 46 46 44 44 44 44 43 41 38 33 27 30 24 31 32 31 26 27 28 30 30 29 26 26 26 26 26 25 24 24 22
44 43 49 49 49 48 48 47 46 43 40 43 37 32 26 28 33 34 32 32 34 32 34 34 30 29 29 30 29 29 28 27 26
46 46 44 48 50 51 50 51 50 46 44 44 43 41 39 37 33 34 23 37 35 35 35 34 34 33 31 31 32 33 32 32 31
50 47 47 49 49 50 50 51 51 50 49 49 49 47 44 45 42 39 40 29 28 39 36 36 35 36 36 34 32 35 36 37 36
55 54 53 53 53 53 52 52 52 52 51 51 51 53 52 51 48 46 41 40 36 33 41 41 37 37 36 36 38 38 39 41 42
50 53 55 55 55 55 55 55 55 55 55 54 53 53 53 52 52 52 49 46 45 44 41 40 35 42 39 34 39 41 45 46 46
50 51 52 54 55 57 59 59 58 58 58 57 56 55 55 55 54 54 54 52 50 48 48 46 42 39 37 43 36 44 48 50 49
46 46 48 51 53 57 58 60 62 63 63 63 62 61 61 60 58 58 58 57 56 54 52 51 48 45 44 41 38 43 50 52 48
41 43 44 46 49 52 55 57 59 63 64 65 66 66 66 67 67 65 63 63 61 60 57 56 54 50 46 45 39 35 43 46 47
41 43 44 45 47 49 51 54 57 58 60 61 64 67 69 69 70 71 71 70 68 66 64 61 60 56 53 49 44 48 50 53 54
36 36 36 39 41 44 47 51 54 57 59 61 63 65 68 70 72 73 73 74 75 74 72 69 66 63 59 57 53 54 53 55 57

GFSFLT1_500_spd_081.txt.gz
Wind_Speed
15 16 21 17 19 19 16 18 17 16 16 18 20 17 16 13 11 11 12 9 13 8 7 4 2 2 4 2 3 5 7 9 8
12 22 17 22 17 22 21 16 16 17 21 21 22 21 19 17 15 14 13 14 12 9 10 4 4 3 2 1 3 4 6 8 8
20 19 20 29 21 22 22 20 25 27 26 25 25 25 23 19 17 17 16 15 13 11 11 8 7 6 3 3 3 6 6 5 7
22 24 27 23 21 20 30 29 26 25 25 24 24 25 24 22 22 21 18 16 14 13 12 12 12 11 7 6 6 7 6 6 6
28 26 27 29 25 27 34 30 27 24 28 31 25 22 23 24 25 23 21 18 15 12 12 14 14 13 14 9 10 7 9 9 8
28 30 29 32 28 25 22 26 28 30 29 33 24 22 23 23 25 25 24 22 19 15 13 12 15 16 14 14 14 10 10 8 9
27 27 29 31 31 29 24 23 28 15 28 28 24 24 29 25 25 26 27 28 23 18 16 16 16 18 18 17 13 12 13 10 10
32 29 30 30 29 29 28 26 29 26 23 23 36 35 32 34 29 30 33 32 29 26 22 20 19 19 20 19 19 18 16 14 14
28 31 31 32 31 31 32 33 33 33 32 31 17 25 30 29 39 25 40 28 35 31 26 24 22 20 20 20 20 19 19 18 18
29 28 28 32 34 34 35 36 38 38 38 35 28 21 32 27 23 27 32 37 25 28 30 27 27 26 25 23 23 24 23 23 23
39 35 30 30 36 39 40 41 42 42 41 40 38 34 37 29 30 29 31 31 27 30 29 30 31 29 28 26 26 27 27 27 26
41 40 39 37 35 39 43 43 45 46 44 42 40 39 37 39 31 26 25 20 28 33 31 33 36 35 31 29 29 30 30 31 29
41 39 38 40 42 43 44 47 49 50 50 48 46 43 42 38 36 39 37 28 26 25 25 35 34 35 34 34 34 33 33 34 34
48 46 49 46 47 45 48 49 48 50 51 48 48 47 47 45 44 42 42 38 34 33 34 24 32 36 36 36 39 39 37 37 37
54 52 52 56 57 57 54 51 52 52 51 51 49 48 47 47 47 47 47 44 42 39 36 35 34 31 37 37 38 38 41 42 41
62 65 65 64 62 61 60 59 57 56 55 54 53 52 51 49 49 49 49 49 46 44 42 38 39 40 36 34 41 42 42 43 43
55 64 62 59 61 61 61 62 59 58 57 54 54 54 54 54 52 51 52 52 52 49 49 46 43 43 42 40 39 40 39 44 47
39 41 42 45 48 52 56 59 60 59 58 56 55 54 55 56 57 57 56 56 56 55 54 54 51 49 47 46 42 41 45 46 47
42 39 38 40 42 44 46 48 50 52 54 54 55 55 56 56 56 59 60 60 61 62 61 60 58 56 55 52 49 47 48 47 50
45 43 40 41 41 42 43 44 46 47 48 49 51 52 54 55 57 58 59 60 62 63 67 67 66 64 62 60 58 55 53 51 51

GFSFLT1_500_spd_084.txt.gz
Wind_Speed
5 18 12 19 22 21 21 18 22 20 21 19 19 20 19 17 15 14 12 11 13 11 6 6 7 8 8 8 6 8 10 11 9
5 11 13 16 18 21 20 19 22 24 26 21 20 21 21 21 18 17 16 15 14 11 7 10 7 10 10 10 10 7 9 10 11
9 15 16 19 22 19 20 23 22 26 24 21 22 24 25 24 22 19 17 16 15 14 13 13 11 11 10 8 9 10 9 12 12
20 17 16 20 22 28 35 28 25 31 24 21 20 22 23 24 24 22 19 18 17 16 16 16 13 16 12 10 8 9 10 10 11
22 22 21 22 23 23 26 19 29 32 27 24 24 24 25 24 26 25 23 21 20 18 19 18 19 16 17 11 11 10 11 12 13
24 25 25 23 21 21 21 18 18 27 34 33 30 27 28 27 26 27 26 24 23 22 21 22 21 20 18 15 15 13 13 14 13
28 28 26 26 25 25 24 23 20 20 27 29 28 29 32 33 29 29 29 28 26 25 25 24 22 22 20 20 20 16 16 17 16
23 27 28 26 24 25 24 24 24 20 20 28 28 32 37 28 24 27 30 31 31 28 27 26 25 24 23 23 21 21 22 21 18
26 23 29 30 27 25 28 26 29 28 26 33 22 26 35 32 26 26 29 29 32 35 36 32 29 28 26 26 27 27 26 24 23
28 25 25 29 30 28 27 30 30 32 30 32 29 27 21 15 36 32 32 31 37 36 34 37 32 33 31 29 29 30 27 26 26
30 30 27 29 30 28 26 28 31 31 32 32 30 25 25 32 23 20 32 24 30 39 32 42 38 36 34 31 31 32 33 31 29
45 41 36 37 35 35 33 30 31 32 33 35 35 30 30 32 30 31 34 22 29 30 25 33 37 35 35 33 34 34 34 35 33
34 35 43 45 39 38 39 38 34 33 34 36 39 38 35 34 34 31 29 34 20 15 27 33 34 37 39 35 36 38 37 36 35
47 45 42 41 40 41 41 42 42 41 40 40 40 41 40 39 39 38 35 33 33 38 34 27 25 26 36 37 41 44 41 40 39
45 45 48 48 43 43 43 43 44 43 41 41 43 43 43 40 41 41 39 36 36 33 34 32 37 36 34 35 42 44 44 44 44
52 56 55 49 43 44 47 48 49 50 50 48 46 45 46 47 45 43 43 42 40 39 38 36 36 37 41 43 39 36 42 43 44
61 60 60 60 62 63 64 61 59 60 59 58 56 54 52 51 51 50 48 46 45 44 44 44 41 40 39 40 41 42 41 34 39
43 46 48 52 58 63 66 64 61 60 59 59 59 57 56 53 54 54 54 52 50 49 49 48 49 46 45 43 43 44 45 44 43
44 43 41 41 44 43 45 51 53 54 54 54 54 53 54 55 55 55 55 56 56 55 54 54 54 55 53 50 49 48 50 50 49
48 46 44 44 45 43 42 43 44 45 45 45 47 47 46 47 48 49 50 52 53 54 57 58 59 60 60 60 57 56 56 56 55

GFSFLT1_500_spd_087.txt.gz
Wind_Speed
3 12 15 18 17 19 25 20 19 19 18 20 19 19 20 18 14 13 16 15 13 11 10 8 9 10 11 10 11 11 11 10 8
5 10 19 19 17 18 25 21 22 21 21 22 23 23 22 21 18 17 17 16 15 16 12 12 11 11 12 13 11 12 13 13 12
12 12 20 15 19 19 22 22 25 24 23 23 21 23 24 23 22 21 19 19 16 17 16 15 16 13 13 12 13 13 14 15 15
18 19 20 22 23 21 21 27 23 21 25 19 23 24 26 24 23 23 22 21 20 20 21 20 15 17 16 14 14 15 14 15 17
25 22 21 22 21 20 22 25 30 18 26 23 34 26 26 27 27 26 26 24 23 23 24 22 20 21 19 18 16 14 15 15 17
29 29 27 22 20 22 23 18 22 32 24 23 33 32 27 27 28 28 28 27 25 24 24 22 23 24 23 21 20 19 18 18 18
31 29 27 25 26 23 23 22 22 18 20 20 24 30 27 27 30 30 31 28 27 26 25 24 25 26 26 26 25 23 21 21 21
35 33 31 30 27 25 23 23 23 22 20 25 19 25 33 33 32 34 35 32 35 32 30 29 29 27 27 27 28 27 25 23 23
29 23 23 30 35 30 25 22 24 25 26 25 24 23 22 32 38 30 39 41 39 38 36 34 35 34 32 32 31 31 28 27 25
34 35 31 30 27 28 26 22 22 25 26 28 29 25 25 30 26 42 34 33 33 36 41 41 39 37 36 33 33 33 32 29 27
35 26 28 32 33 28 27 27 28 27 27 28 29 29 27 24 27 23 28 38 37 36 38 40 45 42 41 40 37 34 34 33 31
43 33 29 27 27 26 27 26 27 28 26 26 27 29 29 26 24 21 29 21 24 34 40 39 42 44 48 47 44 40 39 37 35
36 41 39 41 41 40 40 33 32 33 31 31 30 27 27 27 26 26 26 23 22 24 24 25 30 35 38 45 48 43 42 37 37
41 36 36 38 38 38 39 41 42 44 42 39 37 38 37 35 34 31 29 29 28 23 17 26 23 29 29 39 40 45 43 43 39
42 41 42 44 43 42 41 40 41 42 42 42 40 38 37 35 33 32 33 32 29 28 27 24 31 41 43 35 32 29 49 47 44
51 48 45 47 48 48 48 47 48 45 46 46 45 43 39 35 36 37 35 34 36 34 31 31 30 31 32 34 37 43 41 33 38
46 46 46 47 49 49 50 50 49 51 52 49 50 47 45 43 41 42 45 44 43 42 40 37 36 35 35 35 36 36 40 42 46
50 55 55 53 55 54 54 55 56 57 58 57 55 56 57 59 58 56 52 50 48 46 45 45 44 42 40 41 41 42 42 42 41
49 46 49 51 50 52 56 60 63 61 61 63 63 63 63 61 58 55 54 53 53 52 51 49 49 49 48 48 48 48 48 47 45
50 55 52 49 49 48 49 51 51 50 50 50 51 53 54 54 54 53 52 52 52 52 53 54 55 54 54 54 55 54 55 54 53

GFSFLT1_500_spd_090.txt.gz
Wind_Speed
21 17 20 20 15 16 17 12 15 12 9 16 17 16 16 16 15 15 17 16 14 12 12 10 11 11 12 12 13 12 12 11 11
15 17 20 26 21 17 17 17 19 20 13 13 18 17 17 18 18 17 16 18 15 16 14 12 12 13 12 13 13 13 14 13 12
16 15 22 21 23 21 19 20 23 22 18 16 16 19 20 21 21 20 17 17 17 18 19 15 15 13 14 14 13 13 14 14 14
21 18 18 23 22 26 24 19 23 27 21 18 16 22 25 24 25 23 22 21 21 20 19 20 14 17 17 16 17 16 15 16 16
24 24 22 24 23 21 23 25 25 24 18 25 24 26 32 28 27 26 25 25 23 23 21 20 19 19 20 20 18 18 18 17 17
27 25 25 21 20 21 24 28 29 31 30 29 25 23 28 26 27 28 30 30 27 25 24 23 23 22 23 22 21 20 20 20 19
24 23 25 26 23 24 25 29 29 27 18 26 27 28 31 24 27 30 32 34 31 28 27 25 25 26 25 24 24 23 22 21 22
25 25 28 30 28 28 28 25 24 23 18 22 24 20 14 22 34 33 34 36 35 32 30 28 29 29 29 28 28 29 28 25 24
35 30 31 28 30 29 30 27 24 24 26 27 27 17 19 18 24 39 34 36 35 35 35 34 33 31 32 30 31 33 30 28 27
35 36 36 29 25 21 24 31 28 25 26 25 26 27 23 26 25 27 18 30 34 41 40 40 41 38 35 33 33 33 34 33 33
37 36 37 35 28 30 29 27 29 27 24 24 26 27 26 24 23 22 26 26 23 36 41 45 43 41 42 39 36 34 35 35 35
44 41 36 31 30 31 33 32 29 27 26 24 22 23 24 23 20 19 17 18 16 27 35 49 41 45 45 45 44 41 40 39 39
48 48 49 47 42 39 31 28 26 25 23 26 26 23 22 20 16 14 14 16 19 22 21 23 32 47 53 48 49 48 47 49 43
45 47 36 38 42 43 44 44 41 39 37 36 34 33 29 27 27 29 28 27 25 25 20 20 21 26 24 29 45 47 47 53 51
47 43 45 46 46 48 47 46 46 45 42 42 40 39 38 36 36 35 34 30 26 26 24 22 23 24 27 31 32 33 36 25 23
44 46 43 45 50 50 50 50 49 48 44 41 41 41 40 38 37 36 36 36 33 29 29 28 26 26 28 29 27 30 39 42 32
44 46 46 49 50 47 47 47 49 49 47 46 45 44 44 45 43 42 42 40 40 37 34 33 34 34 32 33 33 32 33 36 39
43 50 53 51 47 51 52 50 51 53 52 52 49 48 48 50 47 47 46 46 45 42 43 43 43 40 39 40 39 39 37 37 39
40 43 49 49 51 55 56 51 52 53 52 52 51 51 51 52 53 52 51 51 50 54 56 53 49 48 47 46 45 45 45 45 44
52 53 52 54 56 54 52 56 58 58 59 59 58 59 60 60 61 59 58 60 61 60 58 57 56 55 54 54 53 52 52 52 51

GFSFLT1_500_spd_093.txt.gz
Wind_Speed
23 22 21 21 21 18 21 24 12 14 12 15 15 15 15 15 14 14 15 15 13 11 12 11 12 13 13 13 12 11 10 10 11
19 21 20 22 21 17 20 18 15 13 15 15 15 15 15 16 15 15 15 17 18 16 14 13 13 13 13 13 12 13 13 13 12
22 21 25 26 27 25 24 20 21 19 17 16 16 14 16 18 18 16 17 16 20 18 16 14 13 12 13 14 14 12 13 14 14
21 20 20 26 30 34 26 24 25 21 24 19 16 18 17 20 19 20 19 20 18 18 18 18 16 15 13 14 15 14 14 15 15
25 24 22 25 26 29 28 29 28 23 24 21 19 19 25 22 23 25 24 24 24 21 21 19 18 19 17 17 16 15 15 15 16
25 27 29 26 28 34 27 34 29 26 23 30 25 22 25 27 27 25 26 27 28 27 25 22 23 23 21 19 18 19 18 18 17
24 27 25 22 25 20 20 19 21 23 29 26 24 28 30 32 32 28 24 30 31 31 29 27 25 27 26 25 23 23 23 21 19
24 26 25 22 23 25 25 26 24 25 27 28 34 34 33 24 21 23 26 30 34 34 33 31 29 29 28 27 28 26 25 24 21
33 31 27 24 23 28 29 29 27 26 23 28 33 20 28 13 9 14 27 32 37 36 34 33 33 33 33 31 29 29 29 28 26
36 35 34 31 28 27 30 31 32 29 26 27 24 24 20 17 14 15 17 26 34 35 37 36 37 38 38 34 30 30 31 31 30
40 37 34 32 33 33 34 29 27 25 20 24 25 23 22 17 18 21 20 14 16 25 26 27 38 42 42 37 36 35 33 33 32
39 40 39 36 34 35 35 33 30 30 31 22 25 26 21 17 17 19 17 16 17 14 17 21 18 31 41 42 40 41 41 39 36
37 36 37 39 40 37 30 30 34 35 35 32 30 28 23 20 16 13 13 14 12 13 12 13 15 17 19 28 36 45 46 43 42
41 39 36 37 39 44 44 42 38 32 34 35 32 30 26 23 23 23 22 22 21 21 20 21 21 22 21 20 24 31 46 49 54
45 44 41 40 41 38 43 43 43 44 44 40 38 34 37 34 33 33 32 31 30 28 25 25 25 23 21 23 23 24 29 26 26
38 39 43 44 44 42 43 43 45 44 46 46 47 49 48 44 39 38 38 38 36 33 32 31 30 29 27 25 24 27 27 27 36
42 42 43 42 43 46 44 46 48 51 52 52 47 47 46 46 43 43 41 41 41 38 38 36 36 36 35 32 28 29 30 31 32
42 44 47 47 46 45 46 48 50 53 54 53 51 47 48 49 49 48 46 45 46 46 46 45 44 43 43 42 41 37 35 37 38
42 43 45 45 43 46 47 50 50 49 52 54 55 54 53 53 55 54 54 52 51 52 49 49 50 51 50 48 48 46 44 43 44
37 38 41 42 42 46 56 56 58 57 54 57 57 58 55 57 58 59 59 56 51 50 50 53 55 56 59 59 55 55 53 51 50

GFSFLT1_500_spd_096.txt.gz
Wind_Speed
7 13 20 19 17 15 21 20 20 17 14 12 14 14 14 13 12 11 12 13 11 10 10 9 8 9 10 10 10 10 8 10 11
15 19 18 19 22 21 24 23 27 19 19 15 12 14 14 14 15 14 13 14 15 13 10 10 9 9 10 11 11 11 11 10 11
19 21 21 22 24 27 29 26 29 25 20 19 15 13 15 16 17 17 16 16 15 16 14 13 12 11 10 11 11 11 12 12 12
24 26 27 28 29 30 30 29 26 22 21 21 19 14 15 17 16 18 19 19 17 16 16 15 14 13 12 13 12 11 11 12 12
23 29 26 23 26 33 33 34 31 30 22 29 27 16 16 19 14 19 20 22 22 21 19 18 18 17 16 16 13 13 13 13 13
28 23 23 23 24 25 27 26 36 32 27 22 17 20 22 18 19 22 23 24 27 26 24 24 22 21 19 18 15 15 15 15 15
27 28 25 24 30 28 27 28 29 33 29 25 26 34 24 28 30 27 27 27 29 30 31 28 26 24 23 22 21 21 18 17 19
22 23 27 26 28 27 23 22 25 26 21 31 25 20 23 26 25 31 33 33 31 33 34 32 29 27 26 26 25 24 24 22 23
28 26 25 23 22 23 20 20 22 22 25 25 21 20 26 26 35 38 28 30 32 32 33 33 33 30 30 30 28 27 27 25 24
31 32 31 28 26 22 19 23 27 28 28 29 27 26 23 24 23 18 10 16 23 24 34 33 33 32 33 32 32 31 30 31 27
33 34 35 36 35 32 30 29 28 28 28 25 26 28 25 20 20 28 20 13 15 16 12 20 16 26 34 34 35 35 34 34 31
35 36 36 37 36 36 36 35 36 33 30 26 25 22 21 19 15 17 15 15 17 17 14 16 21 16 22 30 36 38 39 38 38
37 37 36 35 37 38 38 36 37 38 37 34 30 28 27 24 20 19 19 20 22 20 18 15 11 14 13 12 14 24 34 39 42
40 39 38 37 36 37 39 40 39 37 35 36 35 35 33 31 26 24 22 18 18 20 18 18 17 18 16 16 17 20 19 21 31
42 43 41 41 40 40 40 42 44 44 42 38 36 34 34 35 34 31 28 25 26 25 26 26 24 23 22 21 24 22 24 23 24
40 42 41 41 42 40 40 42 46 47 47 46 47 47 44 38 38 36 34 32 33 34 34 33 31 30 29 28 28 28 27 28 28
39 40 41 40 38 37 41 41 41 42 47 48 45 44 44 47 47 48 46 43 40 40 40 40 40 38 36 36 35 35 34 33 33
39 41 42 42 42 40 40 40 39 40 43 43 44 46 51 53 53 50 51 49 45 44 46 45 45 44 42 39 39 40 41 40 39
37 39 40 41 43 41 40 40 42 42 42 45 50 52 55 54 53 56 56 55 51 51 51 51 49 49 49 49 48 48 48 50 48
34 36 39 42 43 44 44 42 42 43 45 49 51 53 58 59 60 58 55 58 56 56 56 56 56 56 56 57 55 54 55 55 56

GFSFLT1_500_spd_099.txt.gz
Wind_Speed
21 16 20 18 16 13 16 15 16 17 19 17 16 14 13 12 11 10 9 10 8 7 8 4 4 6 8 9 9 8 7 8 8
14 5 11 17 18 20 25 17 18 17 17 15 13 14 14 14 14 13 11 11 11 10 8 15 10 6 7 8 9 10 10 9 7
10 14 14 19 18 21 22 21 22 22 16 13 17 14 16 16 15 14 14 13 13 13 13 15 6 10 10 9 10 11 11 11 11
15 15 16 18 21 22 23 25 24 24 20 20 20 18 16 16 17 17 17 16 16 15 15 17 17 16 13 11 10 11 11 11 11
19 21 22 23 24 23 23 27 25 21 27 23 28 27 21 19 15 16 16 17 19 18 18 16 20 16 15 15 12 10 11 12 12
25 23 23 24 25 23 21 23 31 31 32 34 33 21 29 22 16 19 18 18 20 21 21 21 19 20 20 17 17 15 14 13 14
29 27 26 22 21 20 21 22 23 22 24 36 33 29 23 20 19 20 23 25 24 25 28 24 25 23 23 23 21 20 18 17 17
28 26 32 26 25 23 25 26 27 25 24 24 36 27 23 21 27 30 25 29 26 25 28 30 28 28 26 25 24 21 22 21 21
30 24 25 29 28 26 26 20 18 19 18 15 17 32 21 19 15 21 14 21 30 29 30 31 35 27 30 28 24 27 28 26 24
32 32 29 26 26 23 22 22 21 20 20 19 19 20 19 19 16 18 15 16 21 26 25 26 28 28 31 32 31 32 31 28 28
34 34 34 33 31 28 28 25 24 23 23 22 21 20 16 16 18 18 17 19 16 9 11 17 19 31 37 38 36 36 34 33 32
35 37 38 38 39 37 36 35 35 33 31 30 26 23 22 15 13 17 17 19 21 17 18 16 15 13 18 16 25 38 38 38 37
34 36 37 39 42 43 44 43 42 39 34 32 32 31 27 25 23 20 20 21 21 21 20 22 22 21 22 19 20 20 26 32 36
35 34 34 37 38 39 41 42 44 44 44 42 39 37 37 34 30 27 26 24 25 25 25 26 25 21 19 19 19 22 22 19 17
36 37 39 40 40 39 39 38 39 40 43 44 45 43 39 38 39 37 34 32 31 30 27 25 25 24 21 20 21 21 22 24 25
38 41 41 41 40 41 43 43 42 42 43 42 44 46 45 42 36 35 33 35 36 34 33 32 31 30 29 28 28 30 29 28 28
40 41 40 39 39 40 40 39 42 42 43 44 44 45 45 49 49 45 41 36 39 43 41 35 35 36 36 35 35 35 35 35 35
35 38 41 42 43 43 42 42 40 39 42 43 44 44 44 45 45 47 49 49 46 46 49 49 47 43 43 42 40 40 41 41 41
34 36 37 39 41 44 45 44 43 43 43 43 43 46 48 47 47 48 48 49 52 54 55 53 52 51 50 49 48 47 46 47 48
30 35 38 39 40 41 42 43 44 44 45 46 46 49 50 51 52 53 53 55 55 51 63 60 55 54 55 56 56 56 55 54 53

GFSFLT1_500_spd_102.txt.gz
Wind_Speed
30 34 29 29 23 18 14 14 11 12 14 12 13 13 12 12 10 9 10 8 9 10 2 2 7 8 6 8 7 4 5 7 9
28 37 27 27 24 30 24 20 13 10 12 12 15 14 14 14 13 13 12 12 13 12 11 11 10 8 8 10 10 8 7 7 9
6 21 18 28 25 25 18 23 17 10 10 12 14 12 13 16 16 14 14 13 13 12 10 9 8 7 6 10 9 8 7 9 10
9 14 10 14 23 31 19 20 21 15 13 20 15 14 15 16 19 18 17 17 17 16 13 12 12 10 10 10 7 8 8 9 11
20 15 17 13 18 25 18 23 17 18 20 18 20 18 19 19 22 16 16 20 22 19 16 14 14 15 13 10 10 9 10 10 12
23 26 24 23 18 14 16 13 19 16 20 24 26 22 20 21 28 17 19 22 21 17 17 15 16 15 12 15 16 14 12 14 14
25 24 23 25 19 21 19 17 17 16 17 20 29 31 26 26 21 32 23 26 22 16 16 17 20 23 20 18 18 17 16 18 18
29 26 26 28 27 24 19 20 21 20 20 21 23 21 19 18 27 23 26 26 23 20 23 22 24 21 22 24 20 23 23 21 22
28 28 27 29 30 31 26 21 18 18 17 19 19 15 14 18 32 27 26 23 26 26 28 24 25 21 23 24 26 26 24 23 24
26 28 30 29 29 31 28 26 24 23 20 18 17 14 14 17 20 12 12 12 11 11 15 16 15 19 20 26 26 29 29 28 28
31 30 33 30 26 26 24 23 22 21 22 22 20 18 16 13 14 14 13 15 16 15 12 12 17 12 20 22 27 30 31 32 33
34 34 33 32 31 30 28 27 28 28 27 26 24 21 19 16 15 15 13 14 18 18 22 24 19 18 16 12 15 22 34 39 38
30 31 35 38 37 36 35 34 34 34 34 33 31 29 28 28 26 23 22 18 19 20 21 24 25 24 22 23 21 20 23 22 22
33 32 33 34 36 39 41 42 42 43 43 42 41 38 36 33 33 30 29 27 27 23 24 26 27 27 27 25 27 29 28 27 23
38 34 34 35 35 35 37 38 40 43 45 45 45 44 42 39 38 37 36 34 32 31 30 29 29 30 31 30 27 25 26 25 27
39 39 37 37 39 40 41 41 40 40 41 41 42 42 43 42 41 40 37 36 37 38 37 36 36 36 32 30 30 30 29 28 28
39 40 40 40 42 43 44 43 43 43 44 46 45 45 45 46 45 45 43 43 39 39 38 40 39 38 36 35 35 35 37 36 35
33 34 36 39 42 43 43 42 43 44 45 45 45 46 47 47 48 46 45 46 49 48 47 43 43 40 45 44 40 40 42 42 42
29 30 33 34 37 39 42 45 47 47 47 46 46 46 47 48 50 49 49 49 49 50 46 53 44 51 49 53 53 50 48 48 48
25 28 31 34 36 36 39 41 43 45 47 48 48 49 48 49 50 48 50 53 52 54 54 56 60 58 56 58 58 60 60 57 55

GFSFLT1_500_spd_105.txt.gz
Wind_Speed
37 35 31 33 29 23 21 21 20 17 17 15 13 11 11 10 9 9 11 12 10 10 9 10 9 7 6 5 5 6 7 5 4
35 34 33 31 27 25 25 18 19 17 16 17 15 13 13 12 11 12 13 13 12 10 6 4 7 5 5 5 5 8 7 4 6
25 36 36 32 27 28 25 37 19 17 17 17 15 14 15 13 12 14 16 15 12 12 10 9 9 9 6 6 8 9 9 7 9
4 26 29 28 25 24 22 28 22 20 14 15 13 14 13 12 12 16 16 17 14 14 14 11 8 10 10 8 10 12 10 9 8
15 14 23 23 25 23 32 30 28 23 16 13 18 15 14 12 15 12 14 17 18 17 16 13 13 15 15 14 13 13 11 11 11
16 15 19 16 16 19 24 15 17 16 17 15 14 16 14 10 12 13 15 21 20 19 20 20 17 17 17 17 17 16 13 12 11
27 28 26 18 11 12 20 15 16 9 12 14 14 16 14 16 20 23 24 26 25 21 19 17 18 19 21 19 22 21 18 17 15
13 22 23 20 16 14 16 21 7 13 12 12 13 15 13 11 16 21 22 16 27 24 23 19 22 20 18 20 25 20 21 22 20
26 21 26 24 22 17 16 16 14 15 16 12 10 11 11 11 12 14 15 21 22 28 26 26 30 28 21 19 25 23 28 25 25
26 25 25 26 25 23 21 17 20 17 16 14 14 14 12 10 10 9 12 15 25 27 23 23 22 21 24 19 21 28 29 32 27
24 22 20 23 25 24 24 24 25 23 24 21 21 19 16 15 13 10 10 12 15 17 14 11 12 14 16 20 24 24 23 26 29
24 23 25 26 29 27 23 24 27 24 24 23 23 21 20 17 15 13 12 13 12 13 14 13 16 21 20 21 21 12 13 15 27
36 30 27 28 28 30 32 32 34 32 30 30 28 26 25 23 22 21 19 19 20 21 20 19 22 28 25 25 25 22 22 19 19
27 26 26 26 28 31 33 36 37 38 38 38 35 34 32 32 31 30 28 28 27 27 24 24 26 29 28 28 30 31 31 31 30
29 31 37 35 32 33 34 36 37 40 41 40 41 41 40 39 39 36 36 34 34 32 33 32 32 32 32 31 35 35 34 33 34
41 36 38 39 37 36 37 38 39 40 42 41 41 41 41 40 40 38 38 36 37 37 38 38 38 39 38 38 38 37 37 38 37
37 34 36 40 41 41 42 43 43 44 44 43 44 44 44 44 44 44 43 42 42 41 41 41 40 40 40 42 43 46 43 41 40
27 31 35 39 41 41 42 43 45 46 46 46 47 47 47 49 49 49 49 49 48 46 47 47 46 46 44 42 43 48 47 48 48
27 29 31 33 35 37 39 41 44 46 48 49 49 48 48 49 50 51 51 51 52 53 53 52 48 47 49 51 48 48 49 51 51
25 25 27 29 31 33 36 38 39 40 41 43 45 47 50 52 52 51 51 51 52 53 54 54 55 57 55 53 49 55 51 53 53

GFSFLT1_500_spd_108.txt.gz
Wind_Speed
22 23 32 28 29 32 29 25 23 21 18 16 16 16 14 13 12 11 9 8 8 7 8 8 11 10 10 10 11 10 9 9 10
23 32 33 31 29 30 26 27 25 23 21 20 18 17 16 14 13 12 11 12 11 9 10 7 10 10 11 11 12 9 8 9 11
20 33 37 36 30 33 24 24 27 26 22 22 18 19 18 16 15 15 13 12 12 12 10 10 10 11 12 12 13 12 11 11 11
24 38 38 33 32 30 28 24 26 22 22 23 23 19 18 15 14 15 14 14 15 14 14 14 12 13 15 13 13 12 12 12 13
18 32 34 35 32 28 27 35 32 27 25 20 18 18 16 16 13 15 13 16 16 16 16 15 16 15 16 14 14 14 13 12 14
17 17 33 30 31 27 24 24 24 38 25 22 17 20 16 19 13 15 12 12 14 15 20 18 19 19 19 18 19 18 17 16 15
16 15 13 24 19 29 28 22 20 29 27 30 20 20 17 11 9 15 14 13 16 17 18 18 20 20 20 21 22 21 21 21 21
15 18 16 17 19 21 19 18 21 26 28 26 28 19 13 8 11 14 18 16 19 19 25 20 19 19 21 22 22 27 24 25 29
15 19 26 19 15 14 17 16 27 32 20 22 21 17 14 16 16 15 16 17 20 19 25 24 23 25 24 27 25 25 26 28 26
15 18 20 23 24 25 16 28 33 27 28 18 18 16 15 15 13 11 12 13 15 18 23 26 26 29 32 33 35 32 30 31 27
26 26 25 28 27 31 35 27 20 21 13 16 15 14 15 16 16 12 13 13 14 14 15 21 24 25 24 23 25 27 27 27 29
23 27 28 31 33 29 29 26 18 21 20 21 23 22 20 20 19 17 19 18 16 16 18 18 17 17 16 19 17 19 22 26 23
26 31 30 32 29 27 26 25 23 22 19 22 26 22 22 25 21 22 23 22 21 20 21 22 22 22 22 25 27 26 25 25 23
35 34 32 29 27 28 27 26 26 26 25 28 29 29 27 25 25 28 26 26 27 25 24 26 28 28 28 29 30 31 30 31 32
36 44 39 30 25 25 27 28 30 31 32 32 33 34 34 36 37 37 36 35 37 35 34 34 33 35 34 34 34 34 34 35 35
19 17 25 25 25 24 29 33 33 35 37 38 40 42 43 42 41 42 40 40 39 37 37 37 38 38 40 41 41 42 40 39 39
19 16 25 36 36 37 39 43 42 39 40 41 43 45 44 45 45 44 44 42 42 41 40 40 42 42 43 44 46 46 44 44 45
15 21 24 32 39 42 38 39 42 42 43 45 47 48 49 48 48 48 48 48 48 49 47 46 46 46 46 47 49 49 49 48 46
22 25 26 27 29 33 37 41 44 44 45 46 48 50 51 52 51 51 51 51 51 50 51 50 50 50 50 50 50 52 53 53 52
18 21 23 26 31 35 37 40 40 42 43 44 46 48 50 53 54 54 54 53 53 51 51 51 52 52 53 53 52 52 54 52 52

GFSFLT1_500_spd_111.txt.gz
Wind_Speed
32 19 30 26 27 29 27 22 20 18 18 15 14 13 11 11 11 11 9 9 7 9 8 8 8 8 9 10 10 11 10 9 11
32 30 24 30 30 31 29 24 23 22 21 20 19 17 16 15 13 13 11 10 8 10 9 9 12 12 11 11 11 11 10 12 12
30 35 33 36 32 28 27 26 27 25 24 22 20 19 19 19 18 16 15 13 11 13 12 15 11 15 14 12 12 10 11 13 13
29 28 34 34 33 25 25 29 30 28 27 26 26 24 24 22 22 19 17 16 15 14 13 14 14 14 15 13 15 14 14 15 14
23 29 33 35 30 34 30 30 28 29 29 29 28 28 25 24 22 20 20 20 18 17 16 16 16 16 15 13 14 15 14 14 15
10 17 32 39 39 41 33 36 32 26 29 26 26 28 25 26 26 26 17 22 20 19 18 18 18 19 19 18 19 17 17 17 16
7 6 24 36 40 34 38 35 31 32 37 29 30 29 30 30 32 23 16 24 17 18 17 18 20 20 20 22 21 21 20 20 21
9 9 14 21 35 35 32 35 30 29 31 30 38 30 24 22 18 22 26 25 22 20 19 17 22 20 23 24 24 23 22 24 24
12 9 15 11 15 25 43 42 33 34 29 33 43 33 28 28 22 21 24 24 24 21 21 22 30 27 26 24 23 25 22 23 25
18 15 14 15 17 22 23 23 28 27 35 37 40 39 41 29 29 20 16 22 24 23 24 25 31 30 30 30 28 30 30 32 30
20 18 18 17 15 17 12 18 25 32 35 39 42 33 32 31 23 16 16 20 21 20 20 22 25 28 30 31 33 31 32 28 29
27 24 24 22 23 18 16 20 22 25 34 38 42 34 28 9 8 13 17 19 19 20 21 22 21 20 21 19 20 21 22 23 22
29 25 25 26 25 24 27 26 21 19 18 23 18 29 26 16 17 21 22 22 23 25 24 23 23 23 25 25 26 26 24 25 23
31 29 27 30 29 27 26 26 29 25 24 26 21 19 18 21 20 26 25 24 28 24 21 23 27 28 26 28 30 32 32 31 29
35 34 33 30 33 32 31 28 25 23 21 23 22 21 18 23 22 24 21 23 27 28 29 31 33 35 35 35 35 34 35 35 36
27 30 33 36 41 32 30 25 20 19 21 24 26 28 29 30 34 30 33 36 36 38 39 41 41 43 44 43 42 42 43 43 41
45 25 24 20 38 46 32 28 29 27 28 31 33 35 37 39 41 43 43 43 44 43 43 41 42 41 42 44 45 45 46 47 46
14 7 4 12 13 27 33 38 37 36 34 36 36 37 40 41 42 43 44 45 45 45 45 46 46 45 45 46 47 48 48 50 50
11 10 16 16 17 27 34 39 45 46 45 42 42 43 44 46 48 49 49 50 50 50 50 50 51 52 52 52 51 52 53 53 55
18 18 19 24 28 30 32 34 35 37 38 40 41 43 47 50 52 53 54 54 54 54 54 53 53 53 53 54 54 54 54 55 56

GFSFLT1_500_spd_114.txt.gz
Wind_Speed
33 28 26 24 26 26 25 23 20 17 17 15 15 15 15 14 13 12 12 11 11 10 9 10 11 12 12 13 13 13 11 10 9
34 31 30 25 30 26 28 24 23 21 19 18 18 15 14 15 16 14 12 11 12 11 11 9 9 10 11 10 11 12 11 11 12
34 36 31 27 33 29 28 27 27 24 22 21 20 18 18 16 16 15 14 14 14 13 13 12 10 8 11 12 11 10 11 11 11
33 35 35 26 30 33 30 29 32 28 26 24 23 22 21 21 20 19 18 18 17 16 15 13 11 11 10 12 12 11 14 13 12
33 33 34 33 39 29 35 33 36 31 29 29 27 25 23 24 22 22 22 21 22 18 17 16 15 15 13 13 14 15 14 12 13
12 29 34 27 39 33 41 35 35 32 31 32 30 27 25 26 26 26 28 27 27 23 20 20 18 17 17 18 17 16 17 16 16
9 12 21 30 34 44 32 25 31 31 30 27 29 29 27 29 29 31 31 27 26 27 23 22 20 19 19 20 20 20 21 22 22
9 3 1 18 27 43 39 42 37 32 30 26 28 30 27 29 32 34 33 32 23 24 24 23 20 19 20 20 22 22 23 22 21
15 11 4 4 27 40 40 40 31 28 34 35 33 35 32 33 35 33 30 31 30 27 25 25 24 22 23 22 23 19 21 22 22
15 14 9 6 9 9 17 22 35 39 41 36 39 32 38 40 40 29 27 22 31 33 30 31 28 27 28 29 32 29 26 28 26
14 15 15 11 11 8 12 6 21 26 43 39 37 39 34 37 39 34 32 33 39 36 29 29 29 29 31 32 34 32 32 31 30
19 19 17 16 17 11 10 13 16 19 25 40 42 34 34 40 41 41 39 32 29 24 26 29 31 32 35 30 33 29 26 25 23
22 23 23 22 21 20 21 22 20 21 21 21 32 34 41 37 40 30 31 28 29 25 28 27 24 24 24 25 25 25 23 23 24
25 28 26 24 23 23 24 25 26 25 23 14 15 24 24 34 40 37 24 30 26 25 29 32 33 30 27 27 25 26 26 27 28
25 25 25 25 25 25 22 26 27 26 27 27 33 32 27 19 32 25 28 33 31 33 25 21 22 25 25 25 29 31 33 35 35
26 28 29 28 30 28 30 25 29 26 24 24 24 23 30 23 18 29 18 18 22 24 24 27 28 30 31 35 36 39 41 43 44
32 24 24 34 28 26 24 30 33 34 32 29 22 24 27 30 32 33 30 27 29 31 31 36 39 39 41 42 43 43 43 44 45
30 22 27 17 21 14 15 25 31 37 38 33 33 34 34 34 35 37 36 38 39 41 43 44 44 44 44 46 47 46 46 46 46
13 17 18 16 15 14 19 25 30 36 42 39 43 41 41 41 39 40 41 41 43 44 46 47 47 48 48 50 51 52 53 53 52
18 19 17 20 22 21 23 26 28 32 37 42 42 44 44 43 42 41 42 44 45 46 48 50 50 51 52 53 53 52 52 53 54

GFSFLT1_500_spd_117.txt.gz
Wind_Speed
38 37 32 27 27 28 28 26 23 23 21 19 18 17 16 15 14 13 11 11 12 12 14 14 14 13 12 11 11 12 12 10 9
34 35 28 25 30 30 29 28 27 25 24 21 19 17 16 17 16 15 12 10 11 13 12 12 12 12 13 13 13 13 13 13 13
29 30 33 28 29 26 27 28 30 28 25 24 22 19 18 19 18 16 14 14 13 13 13 13 13 13 13 12 12 13 14 15 14
28 36 37 32 29 22 28 29 31 31 29 26 24 22 21 20 20 19 17 17 16 16 16 15 15 15 16 16 15 13 14 14 14
28 33 41 38 35 28 29 29 32 33 31 29 27 25 23 22 20 20 20 20 20 19 17 16 16 16 16 15 16 16 15 16 15
28 42 45 45 37 34 32 35 32 35 34 33 32 29 27 25 23 23 23 23 22 22 22 20 20 20 19 19 18 18 15 15 16
3 8 15 38 47 35 38 38 35 34 36 36 35 30 29 28 27 28 26 25 24 25 26 26 25 24 23 23 22 21 20 18 19
3 8 4 18 31 36 43 36 29 32 35 36 34 31 30 30 29 26 25 28 25 27 31 30 32 29 27 26 25 24 21 20 21
10 9 16 5 25 33 31 39 32 31 31 29 30 31 29 32 31 25 24 29 30 31 37 35 34 32 29 25 24 24 23 22 23
13 8 7 6 8 22 25 32 35 26 40 34 35 34 30 27 30 33 35 32 33 32 33 31 33 33 32 30 29 25 24 26 25
14 7 11 11 8 7 9 33 39 27 40 37 34 35 30 33 35 28 29 37 36 33 28 36 39 33 37 36 27 36 32 34 30
17 12 13 14 12 12 2 6 10 25 31 34 31 37 38 39 31 37 37 34 37 36 34 34 42 44 43 35 35 32 33 41 34
17 15 17 17 12 10 11 13 17 17 18 26 26 26 29 38 33 35 38 42 41 41 39 33 36 32 30 34 35 36 35 25 19
19 20 21 20 20 19 16 19 24 20 19 21 18 18 24 31 40 28 33 31 33 30 36 32 30 27 21 29 27 23 19 21 22
20 22 26 23 21 24 25 20 17 19 22 26 26 24 22 14 23 31 34 33 31 38 32 30 28 26 23 24 26 23 22 24 27
17 20 15 15 17 22 25 27 23 20 21 24 27 29 28 29 30 19 25 36 27 23 28 27 27 25 27 23 21 31 27 30 33
20 18 15 18 16 21 21 24 30 25 26 25 27 27 29 30 27 27 22 22 21 21 21 22 24 24 25 27 27 31 34 38 40
17 16 15 15 12 11 9 9 18 21 26 28 30 31 31 29 30 29 28 25 27 33 28 28 34 31 35 38 41 41 41 44 44
22 18 18 14 13 12 16 17 20 20 24 30 32 33 34 34 34 34 36 38 38 38 38 38 41 40 42 44 45 47 48 50 50
18 17 15 15 16 16 19 23 24 27 31 32 31 34 38 42 43 43 43 43 43 42 42 43 43 43 45 44 46 48 48 50 52